| time (UTC) | temp F | wind direction | speed MPH | gust MPH | rain 1hr in | rain 24hr in | rain mn in | humidity % | barometer mb |
| 20260905065004 | 57 | 333 | 3.0 | 5.0 | 0.00 | 0.00 | 0.00 | 42 | 1012.0 |
| 20260905064903 | 57 | 345 | 3.0 | 5.0 | 0.00 | 0.00 | 0.00 | 41 | 1011.9 |
| 20260905064803 | 57 | 1 | 3.0 | 5.0 | 0.00 | 0.00 | 0.00 | 41 | 1011.9 |
| 20260905064704 | 57 | 18 | 2.0 | 5.0 | 0.00 | 0.00 | 0.00 | 41 | 1012.0 |
| 20260905064604 | 57 | 43 | 2.0 | 4.0 | 0.00 | 0.00 | 0.00 | 39 | 1011.9 |
| 20260905064504 | 58 | 97 | 2.0 | 3.0 | 0.00 | 0.00 | 0.00 | 39 | 1011.9 |
| 20260905064403 | 58 | 154 | 2.0 | 3.0 | 0.00 | 0.00 | 0.00 | 40 | 1011.9 |
| 20260905064304 | 58 | 176 | 2.0 | 3.0 | 0.00 | 0.00 | 0.00 | 40 | 1011.8 |
| 20260905064204 | 58 | 0 | 0.0 | 2.0 | 0.00 | 0.00 | 0.00 | 40 | 1011.8 |
| 20260905064104 | 58 | 0 | 0.0 | 2.0 | 0.00 | 0.00 | 0.00 | 39 | 1011.8 |
| 20260905064003 | 59 | 0 | 0.0 | 4.0 | 0.00 | 0.00 | 0.00 | 39 | 1011.8 |
| 20260905063904 | 59 | 0 | 0.0 | 4.0 | 0.00 | 0.00 | 0.00 | 38 | 1011.9 |
| 20260905063404 | 59 | 0 | 0.0 | 4.0 | 0.00 | 0.00 | 0.00 | 38 | 1011.7 |
| 20260905063304 | 59 | 0 | 0.0 | 4.0 | 0.00 | 0.00 | 0.00 | 38 | 1011.8 |
| 20260905063204 | 59 | 224 | 1.0 | 4.0 | 0.00 | 0.00 | 0.00 | 38 | 1011.6 |
| 20260905063103 | 60 | 219 | 2.0 | 4.0 | 0.00 | 0.00 | 0.00 | 38 | 1011.6 |
| 20260905063004 | 60 | 214 | 2.0 | 4.0 | 0.00 | 0.00 | 0.00 | 38 | 1011.6 |
| 20260905062904 | 60 | 207 | 2.0 | 4.0 | 0.00 | 0.00 | 0.00 | 38 | 1011.6 |
| 20260905062803 | 60 | 198 | 2.0 | 4.0 | 0.00 | 0.00 | 0.00 | 38 | 1011.5 |
| 20260905062306 | 60 | 131 | 2.0 | 4.0 | 0.00 | 0.00 | 0.00 | 37 | 1011.5 |
| 20260905062204 | 60 | 0 | 0.0 | 4.0 | 0.00 | 0.00 | 0.00 | 37 | 1011.5 |
| 20260905062103 | 60 | 0 | 0.0 | 5.0 | 0.00 | 0.00 | 0.00 | 37 | 1011.5 |
| 20260905062004 | 60 | 0 | 0.0 | 7.0 | 0.00 | 0.00 | 0.00 | 37 | 1011.6 |
| 20260905061904 | 60 | 0 | 0.0 | 9.0 | 0.00 | 0.00 | 0.00 | 37 | 1011.5 |
| 20260905061804 | 60 | 0 | 0.0 | 9.0 | 0.00 | 0.00 | 0.00 | 37 | 1011.5 |
| 20260905061703 | 60 | 0 | 0.0 | 9.0 | 0.00 | 0.00 | 0.00 | 37 | 1011.5 |
| 20260905061604 | 60 | 0 | 0.0 | 11.0 | 0.00 | 0.00 | 0.00 | 37 | 1011.4 |
| 20260905061504 | 60 | 0 | 0.0 | 11.0 | 0.00 | 0.00 | 0.00 | 37 | 1011.4 |
| 20260905061405 | 60 | 80 | 2.0 | 11.0 | 0.00 | 0.00 | 0.00 | 37 | 1011.4 |
| 20260905061303 | 60 | 77 | 2.0 | 11.0 | 0.00 | 0.00 | 0.00 | 37 | 1011.3 |
| 20260905061204 | 60 | 77 | 4.0 | 11.0 | 0.00 | 0.00 | 0.00 | 37 | 1011.4 |
| 20260905061103 | 60 | 77 | 5.0 | 11.0 | 0.00 | 0.00 | 0.00 | 37 | 1011.4 |
| 20260905061004 | 60 | 80 | 3.0 | 11.0 | 0.00 | 0.00 | 0.00 | 37 | 1011.3 |
| 20260905060904 | 60 | 75 | 4.0 | 11.0 | 0.00 | 0.00 | 0.00 | 38 | 1011.3 |
| 20260905060803 | 60 | 82 | 7.0 | 11.0 | 0.00 | 0.00 | 0.00 | 38 | 1011.2 |
| 20260905060704 | 60 | 84 | 8.0 | 11.0 | 0.00 | 0.00 | 0.00 | 38 | 1011.2 |
| 20260905060604 | 60 | 95 | 2.0 | 10.0 | 0.00 | 0.00 | 0.00 | 38 | 1011.2 |
| 20260905060503 | 60 | 110 | 4.0 | 10.0 | 0.00 | 0.00 | 0.00 | 38 | 1011.2 |
| 20260905060404 | 60 | 111 | 2.0 | 8.0 | 0.00 | 0.00 | 0.00 | 37 | 1011.2 |
| 20260905060304 | 60 | 109 | 2.0 | 8.0 | 0.00 | 0.00 | 0.00 | 38 | 1011.3 |
| 20260905060203 | 60 | 108 | 2.0 | 8.0 | 0.00 | 0.00 | 0.00 | 37 | 1011.3 |
| 20260905060104 | 60 | 112 | 2.0 | 8.0 | 0.00 | 0.00 | 0.00 | 37 | 1011.2 |
| 20260905060004 | 60 | 115 | 2.0 | 8.0 | 0.00 | 0.00 | 0.00 | 37 | 1011.1 |
| 20260905055904 | 60 | 114 | 4.0 | 8.0 | 0.00 | 0.00 | 0.00 | 37 | 1011.1 |
| 20260905055803 | 60 | 110 | 3.0 | 8.0 | 0.00 | 0.00 | 0.00 | 37 | 1011.1 |
| 20260905055704 | 60 | 112 | 2.0 | 8.0 | 0.00 | 0.00 | 0.00 | 37 | 1011.1 |
| 20260905055604 | 60 | 105 | 2.0 | 8.0 | 0.00 | 0.00 | 0.00 | 37 | 1010.9 |
| 20260905055504 | 60 | 100 | 2.0 | 8.0 | 0.00 | 0.00 | 0.00 | 37 | 1010.9 |
| 20260905055403 | 60 | 95 | 4.0 | 7.0 | 0.00 | 0.00 | 0.00 | 37 | 1011.0 |
| 20260905055306 | 60 | 102 | 2.0 | 6.0 | 0.00 | 0.00 | 0.00 | 37 | 1011.0 |
| 20260905055204 | 60 | 0 | 0.0 | 7.0 | 0.00 | 0.00 | 0.00 | 37 | 1010.9 |
| 20260905055104 | 60 | 97 | 2.0 | 7.0 | 0.00 | 0.00 | 0.00 | 37 | 1010.9 |
| 20260905055003 | 60 | 94 | 2.0 | 7.0 | 0.00 | 0.00 | 0.00 | 37 | 1011.0 |
| 20260905054904 | 60 | 94 | 1.0 | 7.0 | 0.00 | 0.00 | 0.00 | 37 | 1010.9 |
| 20260905054804 | 60 | 94 | 1.0 | 8.0 | 0.00 | 0.00 | 0.00 | 37 | 1010.9 |
| 20260905054703 | 60 | 90 | 3.0 | 8.0 | 0.00 | 0.00 | 0.00 | 37 | 1011.0 |
| 20260905054604 | 60 | 90 | 4.0 | 8.0 | 0.00 | 0.00 | 0.00 | 37 | 1010.9 |
| 20260905054504 | 60 | 90 | 4.0 | 8.0 | 0.00 | 0.00 | 0.00 | 37 | 1010.9 |
| 20260905054403 | 60 | 90 | 1.0 | 8.0 | 0.00 | 0.00 | 0.00 | 36 | 1010.9 |
| 20260905054303 | 60 | 90 | 3.0 | 8.0 | 0.00 | 0.00 | 0.00 | 37 | 1011.0 |
| 20260905054204 | 61 | 90 | 4.0 | 8.0 | 0.00 | 0.00 | 0.00 | 37 | 1010.8 |
| 20260905054104 | 61 | 94 | 4.0 | 8.0 | 0.00 | 0.00 | 0.00 | 36 | 1010.8 |
| 20260905054003 | 61 | 99 | 4.0 | 8.0 | 0.00 | 0.00 | 0.00 | 36 | 1010.8 |
| 20260905053904 | 61 | 99 | 4.0 | 8.0 | 0.00 | 0.00 | 0.00 | 36 | 1010.8 |
| 20260905053404 | 61 | 109 | 2.0 | 11.0 | 0.00 | 0.00 | 0.00 | 35 | 1010.9 |
| 20260905053304 | 61 | 105 | 2.0 | 11.0 | 0.00 | 0.00 | 0.00 | 35 | 1010.8 |
| 20260905053204 | 62 | 102 | 2.0 | 11.0 | 0.00 | 0.00 | 0.00 | 35 | 1010.6 |
| 20260905053104 | 62 | 99 | 2.0 | 11.0 | 0.00 | 0.00 | 0.00 | 35 | 1010.6 |
| 20260905053004 | 62 | 97 | 2.0 | 11.0 | 0.00 | 0.00 | 0.00 | 34 | 1010.7 |
| 20260905052903 | 62 | 97 | 4.0 | 11.0 | 0.00 | 0.00 | 0.00 | 34 | 1010.6 |
| 20260905052804 | 62 | 98 | 4.0 | 11.0 | 0.00 | 0.00 | 0.00 | 35 | 1010.7 |
| 20260905052703 | 62 | 93 | 2.0 | 11.0 | 0.00 | 0.00 | 0.00 | 34 | 1010.7 |
| 20260905052604 | 62 | 91 | 2.0 | 11.0 | 0.00 | 0.00 | 0.00 | 34 | 1010.6 |
| 20260905052504 | 62 | 87 | 4.0 | 11.0 | 0.00 | 0.00 | 0.00 | 34 | 1010.7 |
| 20260905052404 | 62 | 87 | 6.0 | 10.0 | 0.00 | 0.00 | 0.00 | 34 | 1010.5 |
| 20260905052306 | 62 | 87 | 2.0 | 6.0 | 0.00 | 0.00 | 0.00 | 32 | 1010.6 |
| 20260905052203 | 62 | 87 | 2.0 | 6.0 | 0.00 | 0.00 | 0.00 | 32 | 1010.6 |
| 20260905052104 | 62 | 89 | 2.0 | 6.0 | 0.00 | 0.00 | 0.00 | 32 | 1010.5 |
| 20260905052004 | 62 | 90 | 2.0 | 7.0 | 0.00 | 0.00 | 0.00 | 32 | 1010.6 |
| 20260905051903 | 62 | 90 | 2.0 | 8.0 | 0.00 | 0.00 | 0.00 | 32 | 1010.6 |
| 20260905051803 | 62 | 90 | 2.0 | 8.0 | 0.00 | 0.00 | 0.00 | 32 | 1010.6 |
| 20260905051704 | 62 | 90 | 2.0 | 8.0 | 0.00 | 0.00 | 0.00 | 32 | 1010.5 |
| 20260905051604 | 62 | 92 | 3.0 | 8.0 | 0.00 | 0.00 | 0.00 | 32 | 1010.5 |
| 20260905051503 | 62 | 96 | 2.0 | 8.0 | 0.00 | 0.00 | 0.00 | 32 | 1010.6 |
| 20260905051404 | 62 | 101 | 4.0 | 8.0 | 0.00 | 0.00 | 0.00 | 32 | 1010.5 |
| 20260905051304 | 62 | 111 | 2.0 | 8.0 | 0.00 | 0.00 | 0.00 | 31 | 1010.6 |
| 20260905051204 | 63 | 127 | 1.0 | 8.0 | 0.00 | 0.00 | 0.00 | 30 | 1010.5 |
| 20260905051004 | 63 | 159 | 4.0 | 8.0 | 0.00 | 0.00 | 0.00 | 29 | 1010.5 |
| 20260905050903 | 63 | 175 | 5.0 | 8.0 | 0.00 | 0.00 | 0.00 | 29 | 1010.5 |
| 20260905050803 | 64 | 200 | 3.0 | 8.0 | 0.00 | 0.00 | 0.00 | 28 | 1010.4 |
| 20260905050704 | 64 | 213 | 4.0 | 8.0 | 0.00 | 0.00 | 0.00 | 27 | 1010.4 |
| 20260905050004 | 65 | 235 | 3.0 | 10.0 | 0.00 | 0.00 | 0.00 | 26 | 1010.3 |
| 20260905045903 | 65 | 236 | 2.0 | 10.0 | 0.00 | 0.00 | 0.00 | 26 | 1010.4 |
| 20260905045803 | 65 | 227 | 2.0 | 10.0 | 0.00 | 0.00 | 0.00 | 26 | 1010.3 |
| 20260905045704 | 65 | 226 | 2.0 | 10.0 | 0.00 | 0.00 | 0.00 | 26 | 1010.4 |
| 20260905045604 | 65 | 228 | 5.0 | 10.0 | 0.00 | 0.00 | 0.00 | 26 | 1010.3 |
| 20260905045503 | 65 | 219 | 4.0 | 10.0 | 0.00 | 0.00 | 0.00 | 25 | 1010.2 |
| 20260905045404 | 65 | 213 | 6.0 | 10.0 | 0.00 | 0.00 | 0.00 | 26 | 1010.3 |
| 20260905045306 | 65 | 222 | 6.0 | 10.0 | 0.00 | 0.00 | 0.00 | 26 | 1010.4 |
| 20260905045204 | 65 | 219 | 2.0 | 14.0 | 0.00 | 0.00 | 0.00 | 26 | 1010.1 |
| 20260905045104 | 65 | 221 | 2.0 | 14.0 | 0.00 | 0.00 | 0.00 | 26 | 1010.2 |
| 20260905045004 | 65 | 222 | 2.0 | 14.0 | 0.00 | 0.00 | 0.00 | 26 | 1010.2 |
| 20260905044903 | 65 | 231 | 2.0 | 14.0 | 0.00 | 0.00 | 0.00 | 26 | 1010.1 |
| 20260905044804 | 65 | 244 | 2.0 | 14.0 | 0.00 | 0.00 | 0.00 | 26 | 1010.2 |
| 20260905044704 | 65 | 262 | 2.0 | 14.0 | 0.00 | 0.00 | 0.00 | 26 | 1010.2 |
| 20260905044604 | 65 | 256 | 3.0 | 14.0 | 0.00 | 0.00 | 0.00 | 26 | 1010.2 |
| 20260905044504 | 65 | 258 | 6.0 | 14.0 | 0.00 | 0.00 | 0.00 | 26 | 1010.1 |
| 20260905044403 | 65 | 263 | 6.0 | 14.0 | 0.00 | 0.00 | 0.00 | 26 | 1010.1 |
| 20260905044304 | 65 | 252 | 8.0 | 14.0 | 0.00 | 0.00 | 0.00 | 26 | 1010.0 |
| 20260905044204 | 64 | 262 | 5.0 | 11.0 | 0.00 | 0.00 | 0.00 | 26 | 1010.1 |
| 20260905044103 | 64 | 263 | 7.0 | 11.0 | 0.00 | 0.00 | 0.00 | 26 | 1010.1 |
| 20260905044003 | 64 | 270 | 4.0 | 9.0 | 0.00 | 0.00 | 0.00 | 27 | 1010.0 |
| 20260905043904 | 64 | 286 | 4.0 | 9.0 | 0.00 | 0.00 | 0.00 | 27 | 1010.0 |
| 20260905043804 | 64 | 276 | 6.0 | 9.0 | 0.00 | 0.00 | 0.00 | 27 | 1009.9 |
| 20260905043704 | 64 | 247 | 4.0 | 9.0 | 0.00 | 0.00 | 0.00 | 27 | 1009.9 |
| 20260905043603 | 64 | 266 | 4.0 | 9.0 | 0.00 | 0.00 | 0.00 | 27 | 1009.9 |
| 20260905043504 | 65 | 293 | 4.0 | 8.0 | 0.00 | 0.00 | 0.00 | 27 | 1009.9 |
| 20260905043404 | 65 | 326 | 4.0 | 9.0 | 0.00 | 0.00 | 0.00 | 27 | 1010.0 |
| 20260905043304 | 65 | 342 | 2.0 | 9.0 | 0.00 | 0.00 | 0.00 | 27 | 1009.9 |
| 20260905043204 | 65 | 336 | 2.0 | 9.0 | 0.00 | 0.00 | 0.00 | 27 | 1009.8 |
| 20260905043104 | 65 | 319 | 1.0 | 9.0 | 0.00 | 0.00 | 0.00 | 27 | 1010.0 |
| 20260905043003 | 65 | 316 | 1.0 | 9.0 | 0.00 | 0.00 | 0.00 | 27 | 1010.0 |
| 20260905042903 | 65 | 309 | 2.0 | 9.0 | 0.00 | 0.00 | 0.00 | 27 | 1009.9 |
| 20260905042804 | 65 | 296 | 2.0 | 9.0 | 0.00 | 0.00 | 0.00 | 26 | 1009.9 |
| 20260905042704 | 65 | 291 | 2.0 | 9.0 | 0.00 | 0.00 | 0.00 | 26 | 1009.8 |
| 20260905042603 | 65 | 277 | 4.0 | 9.0 | 0.00 | 0.00 | 0.00 | 26 | 1009.9 |
| 20260905042003 | 66 | 239 | 4.0 | 15.0 | 0.00 | 0.00 | 0.00 | 26 | 1009.9 |
| 20260905041904 | 66 | 245 | 4.0 | 15.0 | 0.00 | 0.00 | 0.00 | 26 | 1009.8 |
| 20260905041804 | 66 | 262 | 4.0 | 15.0 | 0.00 | 0.00 | 0.00 | 26 | 1009.9 |
| 20260905041704 | 66 | 302 | 4.0 | 15.0 | 0.00 | 0.00 | 0.00 | 25 | 1009.8 |
| 20260905041603 | 66 | 304 | 4.0 | 15.0 | 0.00 | 0.00 | 0.00 | 25 | 1009.8 |
| 20260905041503 | 66 | 284 | 3.0 | 15.0 | 0.00 | 0.00 | 0.00 | 25 | 1009.8 |
| 20260905041404 | 66 | 272 | 4.0 | 15.0 | 0.00 | 0.00 | 0.00 | 24 | 1009.9 |
| 20260905041304 | 66 | 262 | 3.0 | 15.0 | 0.00 | 0.00 | 0.00 | 24 | 1009.8 |
| 20260905041203 | 66 | 265 | 5.0 | 15.0 | 0.00 | 0.00 | 0.00 | 24 | 1009.8 |
| 20260905041103 | 66 | 272 | 8.0 | 14.0 | 0.00 | 0.00 | 0.00 | 24 | 1009.8 |
| 20260905041004 | 66 | 275 | 4.0 | 11.0 | 0.00 | 0.00 | 0.00 | 25 | 1009.8 |
| 20260905040904 | 66 | 274 | 3.0 | 10.0 | 0.00 | 0.00 | 0.00 | 25 | 1009.8 |
| 20260905040803 | 66 | 276 | 3.0 | 12.0 | 0.00 | 0.00 | 0.00 | 25 | 1009.8 |
| 20260905040703 | 66 | 265 | 5.0 | 15.0 | 0.00 | 0.00 | 0.00 | 25 | 1009.7 |
| 20260905040604 | 66 | 267 | 5.0 | 15.0 | 0.00 | 0.00 | 0.00 | 25 | 1009.8 |
| 20260905040504 | 66 | 262 | 5.0 | 15.0 | 0.00 | 0.00 | 0.00 | 25 | 1009.8 |
| 20260905040404 | 66 | 256 | 5.0 | 15.0 | 0.00 | 0.00 | 0.00 | 25 | 1009.7 |
| 20260905040303 | 66 | 257 | 5.0 | 15.0 | 0.00 | 0.00 | 0.00 | 25 | 1009.8 |
| 20260905040204 | 66 | 252 | 5.0 | 15.0 | 0.00 | 0.00 | 0.00 | 25 | 1009.8 |
| 20260905035604 | 66 | 230 | 4.0 | 11.0 | 0.00 | 0.00 | 0.00 | 26 | 1009.7 |
| 20260905035503 | 66 | 234 | 5.0 | 11.0 | 0.00 | 0.00 | 0.00 | 25 | 1009.7 |
| 20260905035403 | 66 | 237 | 3.0 | 11.0 | 0.00 | 0.00 | 0.00 | 25 | 1009.6 |
| 20260905035306 | 66 | 222 | 2.0 | 11.0 | 0.00 | 0.00 | 0.00 | 25 | 1009.7 |
| 20260905035204 | 66 | 219 | 4.0 | 11.0 | 0.00 | 0.00 | 0.00 | 24 | 1009.7 |
| 20260905035104 | 66 | 217 | 3.0 | 11.0 | 0.00 | 0.00 | 0.00 | 25 | 1009.6 |
| 20260905035003 | 66 | 209 | 4.0 | 11.0 | 0.00 | 0.00 | 0.00 | 24 | 1009.6 |
| 20260905034904 | 66 | 218 | 4.0 | 11.0 | 0.00 | 0.00 | 0.00 | 24 | 1009.6 |
| 20260905034804 | 66 | 215 | 2.0 | 10.0 | 0.00 | 0.00 | 0.00 | 24 | 1009.6 |
| 20260905034704 | 66 | 207 | 3.0 | 10.0 | 0.00 | 0.00 | 0.00 | 25 | 1009.6 |
| 20260905034603 | 66 | 200 | 3.0 | 10.0 | 0.00 | 0.00 | 0.00 | 24 | 1009.6 |
| 20260905034504 | 66 | 196 | 3.0 | 10.0 | 0.00 | 0.00 | 0.00 | 24 | 1009.6 |
| 20260905034404 | 66 | 199 | 2.0 | 10.0 | 0.00 | 0.00 | 0.00 | 24 | 1009.5 |
| 20260905034303 | 66 | 203 | 5.0 | 10.0 | 0.00 | 0.00 | 0.00 | 24 | 1009.7 |
| 20260905034203 | 66 | 194 | 8.0 | 10.0 | 0.00 | 0.00 | 0.00 | 24 | 1009.5 |
| 20260905034104 | 66 | 183 | 3.0 | 8.0 | 0.00 | 0.00 | 0.00 | 25 | 1009.6 |
| 20260905034004 | 66 | 185 | 3.0 | 7.0 | 0.00 | 0.00 | 0.00 | 24 | 1009.5 |
| 20260905033904 | 66 | 184 | 2.0 | 8.0 | 0.00 | 0.00 | 0.00 | 24 | 1009.6 |
| 20260905033803 | 67 | 193 | 1.0 | 8.0 | 0.00 | 0.00 | 0.00 | 24 | 1009.6 |
| 20260905033704 | 67 | 196 | 2.0 | 8.0 | 0.00 | 0.00 | 0.00 | 24 | 1009.6 |
| 20260905033604 | 67 | 203 | 2.0 | 9.0 | 0.00 | 0.00 | 0.00 | 24 | 1009.6 |
| 20260905033504 | 67 | 201 | 2.0 | 9.0 | 0.00 | 0.00 | 0.00 | 24 | 1009.6 |
| 20260905033404 | 67 | 200 | 2.0 | 9.0 | 0.00 | 0.00 | 0.00 | 24 | 1009.6 |
| 20260905033304 | 67 | 204 | 2.0 | 9.0 | 0.00 | 0.00 | 0.00 | 24 | 1009.6 |
| 20260905033203 | 67 | 214 | 2.0 | 9.0 | 0.00 | 0.00 | 0.00 | 24 | 1009.7 |
| 20260905033103 | 67 | 227 | 2.0 | 9.0 | 0.00 | 0.00 | 0.00 | 24 | 1009.7 |
| 20260905033004 | 67 | 239 | 2.0 | 9.0 | 0.00 | 0.00 | 0.00 | 24 | 1009.7 |
| 20260905032803 | 67 | 263 | 4.0 | 11.0 | 0.00 | 0.00 | 0.00 | 24 | 1009.6 |
| 20260905032703 | 67 | 267 | 5.0 | 11.0 | 0.00 | 0.00 | 0.00 | 24 | 1009.6 |
| 20260905032604 | 67 | 252 | 4.0 | 11.0 | 0.00 | 0.00 | 0.00 | 24 | 1009.6 |
| 20260905032504 | 67 | 263 | 4.0 | 11.0 | 0.00 | 0.00 | 0.00 | 24 | 1009.5 |
| 20260905032403 | 67 | 248 | 2.0 | 11.0 | 0.00 | 0.00 | 0.00 | 24 | 1009.6 |
| 20260905032306 | 67 | 240 | 3.0 | 11.0 | 0.00 | 0.00 | 0.00 | 24 | 1009.5 |
| 20260905032204 | 67 | 223 | 2.0 | 11.0 | 0.00 | 0.00 | 0.00 | 23 | 1009.6 |
| 20260905032103 | 67 | 207 | 2.0 | 11.0 | 0.00 | 0.00 | 0.00 | 23 | 1009.6 |
| 20260905032003 | 67 | 203 | 4.0 | 11.0 | 0.00 | 0.00 | 0.00 | 23 | 1009.5 |
| 20260905031904 | 67 | 207 | 4.0 | 11.0 | 0.00 | 0.00 | 0.00 | 23 | 1009.5 |
| 20260905031804 | 67 | 214 | 6.0 | 11.0 | 0.00 | 0.00 | 0.00 | 23 | 1009.4 |
| 20260905031703 | 67 | 219 | 2.0 | 10.0 | 0.00 | 0.00 | 0.00 | 23 | 1009.4 |
| 20260905031604 | 67 | 232 | 2.0 | 10.0 | 0.00 | 0.00 | 0.00 | 23 | 1009.5 |
| 20260905031504 | 67 | 237 | 2.0 | 14.0 | 0.00 | 0.00 | 0.00 | 23 | 1009.3 |
| 20260905031403 | 67 | 246 | 5.0 | 14.0 | 0.00 | 0.00 | 0.00 | 23 | 1009.5 |
| 20260905031304 | 67 | 249 | 4.0 | 14.0 | 0.00 | 0.00 | 0.00 | 23 | 1009.5 |
| 20260905031204 | 67 | 247 | 3.0 | 14.0 | 0.00 | 0.00 | 0.00 | 23 | 1009.4 |
| 20260905031103 | 67 | 249 | 4.0 | 14.0 | 0.00 | 0.00 | 0.00 | 23 | 1009.4 |
| 20260905031003 | 67 | 252 | 2.0 | 14.0 | 0.00 | 0.00 | 0.00 | 23 | 1009.4 |
| 20260905030904 | 67 | 257 | 4.0 | 14.0 | 0.00 | 0.00 | 0.00 | 22 | 1009.3 |
| 20260905030804 | 67 | 254 | 6.0 | 14.0 | 0.00 | 0.00 | 0.00 | 23 | 1009.2 |
| 20260905030703 | 67 | 258 | 4.0 | 14.0 | 0.00 | 0.00 | 0.00 | 22 | 1009.1 |
| 20260905030503 | 67 | 264 | 8.0 | 14.0 | 0.00 | 0.00 | 0.00 | 23 | 1009.2 |
| 20260905030404 | 67 | 260 | 5.0 | 14.0 | 0.00 | 0.00 | 0.00 | 23 | 1009.2 |
| 20260905030304 | 67 | 264 | 7.0 | 14.0 | 0.00 | 0.00 | 0.00 | 23 | 1009.2 |
| 20260905030204 | 67 | 270 | 7.0 | 14.0 | 0.00 | 0.00 | 0.00 | 23 | 1009.1 |
| 20260905030004 | 67 | 271 | 7.0 | 14.0 | 0.00 | 0.00 | 0.00 | 23 | 1009.1 |
| 20260905025904 | 67 | 260 | 6.0 | 14.0 | 0.00 | 0.00 | 0.00 | 23 | 1009.3 |
| 20260905025803 | 67 | 260 | 6.0 | 14.0 | 0.00 | 0.00 | 0.00 | 23 | 1009.3 |
| 20260905025703 | 67 | 250 | 2.0 | 14.0 | 0.00 | 0.00 | 0.00 | 23 | 1009.2 |
| 20260905025604 | 67 | 241 | 8.0 | 14.0 | 0.00 | 0.00 | 0.00 | 23 | 1009.3 |
| 20260905025504 | 67 | 232 | 9.0 | 14.0 | 0.00 | 0.00 | 0.00 | 23 | 1009.3 |
| 20260905025403 | 67 | 233 | 2.0 | 8.0 | 0.00 | 0.00 | 0.00 | 23 | 1009.2 |
| 20260905025306 | 67 | 231 | 4.0 | 8.0 | 0.00 | 0.00 | 0.00 | 23 | 1009.3 |
| 20260905025203 | 67 | 229 | 2.0 | 7.0 | 0.00 | 0.00 | 0.00 | 23 | 1009.1 |
| 20260905025104 | 67 | 228 | 2.0 | 9.0 | 0.00 | 0.00 | 0.00 | 23 | 1009.1 |
| 20260905025004 | 67 | 237 | 2.0 | 9.0 | 0.00 | 0.00 | 0.00 | 23 | 1009.2 |
| 20260905024903 | 67 | 241 | 2.0 | 9.0 | 0.00 | 0.00 | 0.00 | 23 | 1009.0 |
| 20260905024804 | 67 | 247 | 2.0 | 9.0 | 0.00 | 0.00 | 0.00 | 23 | 1009.1 |
| 20260905024704 | 67 | 241 | 2.0 | 11.0 | 0.00 | 0.00 | 0.00 | 23 | 1009.0 |
| 20260905024604 | 67 | 245 | 2.0 | 12.0 | 0.00 | 0.00 | 0.00 | 23 | 1008.8 |
| 20260905024504 | 67 | 243 | 2.0 | 15.0 | 0.00 | 0.00 | 0.00 | 23 | 1009.0 |
| 20260905024404 | 67 | 245 | 2.0 | 15.0 | 0.00 | 0.00 | 0.00 | 23 | 1008.9 |
| 20260905024304 | 67 | 242 | 3.0 | 15.0 | 0.00 | 0.00 | 0.00 | 23 | 1008.8 |
| 20260905024203 | 67 | 240 | 4.0 | 15.0 | 0.00 | 0.00 | 0.00 | 23 | 1008.9 |
| 20260905024103 | 67 | 240 | 5.0 | 15.0 | 0.00 | 0.00 | 0.00 | 24 | 1008.8 |
| 20260905024004 | 68 | 236 | 5.0 | 15.0 | 0.00 | 0.00 | 0.00 | 23 | 1008.7 |
| 20260905023903 | 67 | 238 | 5.0 | 15.0 | 0.00 | 0.00 | 0.00 | 23 | 1008.8 |
| 20260905023803 | 67 | 237 | 4.0 | 15.0 | 0.00 | 0.00 | 0.00 | 24 | 1008.8 |
| 20260905023704 | 68 | 239 | 7.0 | 15.0 | 0.00 | 0.00 | 0.00 | 24 | 1008.7 |
| 20260905023604 | 68 | 235 | 8.0 | 15.0 | 0.00 | 0.00 | 0.00 | 24 | 1008.7 |
| 20260905023503 | 68 | 241 | 6.0 | 13.0 | 0.00 | 0.00 | 0.00 | 24 | 1008.7 |
| 20260905023403 | 68 | 246 | 5.0 | 13.0 | 0.00 | 0.00 | 0.00 | 24 | 1008.8 |
| 20260905023304 | 68 | 254 | 5.0 | 13.0 | 0.00 | 0.00 | 0.00 | 24 | 1008.7 |
| 20260905023204 | 68 | 264 | 8.0 | 13.0 | 0.00 | 0.00 | 0.00 | 24 | 1008.7 |
| 20260905023103 | 68 | 267 | 8.0 | 15.0 | 0.00 | 0.00 | 0.00 | 24 | 1008.7 |
| 20260905023003 | 68 | 274 | 8.0 | 15.0 | 0.00 | 0.00 | 0.00 | 24 | 1008.7 |
| 20260905022904 | 68 | 273 | 7.0 | 15.0 | 0.00 | 0.00 | 0.00 | 24 | 1008.6 |
| 20260905022804 | 68 | 274 | 3.0 | 15.0 | 0.00 | 0.00 | 0.00 | 24 | 1008.7 |
| 20260905022703 | 68 | 278 | 5.0 | 15.0 | 0.00 | 0.00 | 0.00 | 24 | 1008.6 |
| 20260905022603 | 68 | 282 | 5.0 | 15.0 | 0.00 | 0.00 | 0.00 | 24 | 1008.6 |
| 20260905022504 | 68 | 276 | 6.0 | 15.0 | 0.00 | 0.00 | 0.00 | 25 | 1008.6 |
| 20260905022404 | 67 | 262 | 5.0 | 15.0 | 0.00 | 0.00 | 0.00 | 25 | 1008.7 |
| 20260905022306 | 67 | 249 | 5.0 | 15.0 | 0.00 | 0.00 | 0.00 | 25 | 1008.6 |
| 20260905022203 | 67 | 235 | 6.0 | 15.0 | 0.00 | 0.00 | 0.00 | 25 | 1008.6 |
| 20260905022104 | 68 | 232 | 10.0 | 15.0 | 0.00 | 0.00 | 0.00 | 25 | 1008.6 |
| 20260905022004 | 68 | 201 | 2.0 | 6.0 | 0.00 | 0.00 | 0.00 | 26 | 1008.7 |
| 20260905021903 | 68 | 0 | 0.0 | 6.0 | 0.00 | 0.00 | 0.00 | 26 | 1008.6 |
| 20260905021803 | 68 | 207 | 1.0 | 6.0 | 0.00 | 0.00 | 0.00 | 26 | 1008.6 |
| 20260905021704 | 68 | 0 | 0.0 | 6.0 | 0.00 | 0.00 | 0.00 | 26 | 1008.6 |
| 20260905021604 | 68 | 206 | 4.0 | 6.0 | 0.00 | 0.00 | 0.00 | 26 | 1008.6 |
| 20260905021504 | 68 | 160 | 4.0 | 6.0 | 0.00 | 0.00 | 0.00 | 26 | 1008.6 |
| 20260905021404 | 68 | 0 | 0.0 | 10.0 | 0.00 | 0.00 | 0.00 | 26 | 1008.7 |
| 20260905021303 | 68 | 215 | 2.0 | 10.0 | 0.00 | 0.00 | 0.00 | 26 | 1008.7 |
| 20260905021204 | 68 | 246 | 2.0 | 12.0 | 0.00 | 0.00 | 0.00 | 26 | 1008.6 |
| 20260905021104 | 68 | 230 | 2.0 | 12.0 | 0.00 | 0.00 | 0.00 | 26 | 1008.5 |
| 20260905021003 | 68 | 226 | 2.0 | 12.0 | 0.00 | 0.00 | 0.00 | 26 | 1008.8 |
| 20260905020904 | 68 | 222 | 1.0 | 12.0 | 0.00 | 0.00 | 0.00 | 26 | 1008.8 |
| 20260905020804 | 68 | 208 | 1.0 | 12.0 | 0.00 | 0.00 | 0.00 | 26 | 1008.7 |
| 20260905020704 | 68 | 222 | 1.0 | 12.0 | 0.00 | 0.00 | 0.00 | 26 | 1008.8 |
| 20260905020604 | 69 | 228 | 1.0 | 12.0 | 0.00 | 0.00 | 0.00 | 25 | 1008.8 |
| 20260905020503 | 69 | 243 | 2.0 | 15.0 | 0.00 | 0.00 | 0.00 | 25 | 1008.7 |
| 20260905020403 | 69 | 234 | 4.0 | 15.0 | 0.00 | 0.00 | 0.00 | 25 | 1008.8 |
| 20260905020304 | 69 | 244 | 4.0 | 15.0 | 0.00 | 0.00 | 0.00 | 25 | 1008.7 |
| 20260905020204 | 69 | 235 | 4.0 | 15.0 | 0.00 | 0.00 | 0.00 | 26 | 1008.7 |
| 20260905020104 | 69 | 242 | 1.0 | 15.0 | 0.00 | 0.00 | 0.00 | 25 | 1008.6 |
| 20260905020003 | 69 | 243 | 1.0 | 15.0 | 0.00 | 0.00 | 0.00 | 25 | 1008.6 |
| 20260905015904 | 69 | 247 | 6.0 | 15.0 | 0.00 | 0.00 | 0.00 | 25 | 1008.6 |
| 20260905015804 | 70 | 252 | 7.0 | 15.0 | 0.00 | 0.00 | 0.00 | 25 | 1008.7 |
| 20260905015703 | 70 | 252 | 4.0 | 15.0 | 0.00 | 0.00 | 0.00 | 24 | 1008.8 |
| 20260905015603 | 70 | 255 | 6.0 | 15.0 | 0.00 | 0.00 | 0.00 | 24 | 1008.6 |
| 20260905015504 | 70 | 242 | 4.0 | 11.0 | 0.00 | 0.00 | 0.00 | 23 | 1008.7 |
| 20260905015404 | 70 | 249 | 2.0 | 11.0 | 0.00 | 0.00 | 0.00 | 23 | 1008.6 |
| 20260905015306 | 71 | 263 | 2.0 | 14.0 | 0.00 | 0.00 | 0.00 | 23 | 1008.5 |
| 20260905015203 | 71 | 270 | 6.0 | 14.0 | 0.00 | 0.00 | 0.00 | 23 | 1008.5 |
| 20260905015104 | 71 | 272 | 4.0 | 17.0 | 0.00 | 0.00 | 0.00 | 23 | 1008.5 |
| 20260905015004 | 71 | 274 | 4.0 | 17.0 | 0.00 | 0.00 | 0.00 | 23 | 1008.6 |
| 20260905014903 | 71 | 268 | 7.0 | 17.0 | 0.00 | 0.00 | 0.00 | 23 | 1008.5 |
| 20260905014803 | 71 | 264 | 4.0 | 17.0 | 0.00 | 0.00 | 0.00 | 22 | 1008.4 |
| 20260905014703 | 71 | 262 | 2.0 | 17.0 | 0.00 | 0.00 | 0.00 | 22 | 1008.4 |
| 20260905014604 | 71 | 261 | 4.0 | 17.0 | 0.00 | 0.00 | 0.00 | 22 | 1008.4 |
| 20260905014403 | 71 | 259 | 8.0 | 17.0 | 0.00 | 0.00 | 0.00 | 22 | 1008.5 |
| 20260905014304 | 71 | 255 | 6.0 | 17.0 | 0.00 | 0.00 | 0.00 | 22 | 1008.3 |
| 20260905014204 | 72 | 250 | 9.0 | 17.0 | 0.00 | 0.00 | 0.00 | 21 | 1008.4 |
| 20260905014103 | 72 | 241 | 13.0 | 17.0 | 0.00 | 0.00 | 0.00 | 21 | 1008.3 |
| 20260905014004 | 72 | 236 | 8.0 | 17.0 | 0.00 | 0.00 | 0.00 | 21 | 1008.4 |
| 20260905013904 | 72 | 236 | 9.0 | 17.0 | 0.00 | 0.00 | 0.00 | 21 | 1008.4 |
| 20260905013803 | 72 | 238 | 8.0 | 17.0 | 0.00 | 0.00 | 0.00 | 20 | 1008.3 |
| 20260905013704 | 72 | 241 | 6.0 | 17.0 | 0.00 | 0.00 | 0.00 | 20 | 1008.2 |
| 20260905013604 | 72 | 231 | 10.0 | 17.0 | 0.00 | 0.00 | 0.00 | 19 | 1008.4 |
| 20260905013503 | 72 | 236 | 8.0 | 15.0 | 0.00 | 0.00 | 0.00 | 20 | 1008.3 |
| 20260905013403 | 72 | 207 | 8.0 | 15.0 | 0.00 | 0.00 | 0.00 | 20 | 1008.2 |
| 20260905013304 | 72 | 202 | 4.0 | 13.0 | 0.00 | 0.00 | 0.00 | 20 | 1008.2 |
| 20260905013204 | 72 | 162 | 4.0 | 10.0 | 0.00 | 0.00 | 0.00 | 21 | 1008.3 |
| 20260905013103 | 73 | 170 | 1.0 | 10.0 | 0.00 | 0.00 | 0.00 | 21 | 1008.5 |
| 20260905013003 | 73 | 184 | 1.0 | 10.0 | 0.00 | 0.00 | 0.00 | 21 | 1008.5 |
| 20260905012904 | 73 | 217 | 2.0 | 10.0 | 0.00 | 0.00 | 0.00 | 20 | 1008.3 |
| 20260905012804 | 73 | 232 | 2.0 | 13.0 | 0.00 | 0.00 | 0.00 | 20 | 1008.2 |
| 20260905012703 | 73 | 217 | 1.0 | 13.0 | 0.00 | 0.00 | 0.00 | 21 | 1008.3 |
| 20260905012204 | 73 | 241 | 4.0 | 13.0 | 0.00 | 0.00 | 0.00 | 21 | 1008.1 |
| 20260905012103 | 73 | 236 | 2.0 | 13.0 | 0.00 | 0.00 | 0.00 | 21 | 1008.2 |
| 20260905012004 | 73 | 242 | 5.0 | 13.0 | 0.00 | 0.00 | 0.00 | 21 | 1008.3 |
| 20260905011903 | 73 | 241 | 6.0 | 13.0 | 0.00 | 0.00 | 0.00 | 20 | 1008.3 |
| 20260905011803 | 73 | 247 | 8.0 | 21.0 | 0.00 | 0.00 | 0.00 | 20 | 1008.2 |
| 20260905011703 | 73 | 241 | 2.0 | 21.0 | 0.00 | 0.00 | 0.00 | 21 | 1008.2 |
| 20260905011604 | 73 | 245 | 3.0 | 21.0 | 0.00 | 0.00 | 0.00 | 21 | 1008.3 |
| 20260905011503 | 73 | 242 | 3.0 | 21.0 | 0.00 | 0.00 | 0.00 | 21 | 1008.3 |
| 20260905011403 | 73 | 238 | 4.0 | 21.0 | 0.00 | 0.00 | 0.00 | 22 | 1008.3 |
| 20260905011303 | 73 | 243 | 2.0 | 22.0 | 0.00 | 0.00 | 0.00 | 22 | 1008.2 |
| 20260905011204 | 72 | 247 | 4.0 | 22.0 | 0.00 | 0.00 | 0.00 | 21 | 1008.3 |
| 20260905011104 | 72 | 254 | 8.0 | 22.0 | 0.00 | 0.00 | 0.00 | 22 | 1008.3 |
| 20260905010903 | 72 | 257 | 8.0 | 22.0 | 0.00 | 0.00 | 0.00 | 22 | 1008.3 |
| 20260905010804 | 72 | 256 | 10.0 | 22.0 | 0.00 | 0.00 | 0.00 | 23 | 1008.2 |
| 20260905010703 | 72 | 260 | 9.0 | 22.0 | 0.00 | 0.00 | 0.00 | 22 | 1008.2 |
| 20260905010603 | 72 | 260 | 11.0 | 22.0 | 0.00 | 0.00 | 0.00 | 22 | 1008.1 |
| 20260905010404 | 73 | 271 | 15.0 | 22.0 | 0.00 | 0.00 | 0.00 | 22 | 1008.0 |
| 20260905010304 | 73 | 268 | 12.0 | 20.0 | 0.00 | 0.00 | 0.00 | 22 | 1008.2 |
| 20260905010203 | 73 | 262 | 15.0 | 21.0 | 0.00 | 0.00 | 0.00 | 21 | 1008.0 |
| 20260905010103 | 74 | 255 | 11.0 | 21.0 | 0.00 | 0.00 | 0.00 | 21 | 1008.1 |
| 20260905010004 | 74 | 247 | 15.0 | 21.0 | 0.00 | 0.00 | 0.00 | 21 | 1008.0 |
| 20260905005803 | 74 | 255 | 3.0 | 25.0 | 0.00 | 0.00 | 0.00 | 21 | 1008.0 |
| 20260905005703 | 74 | 250 | 4.0 | 25.0 | 0.00 | 0.00 | 0.00 | 20 | 1008.1 |
| 20260905005604 | 74 | 246 | 5.0 | 25.0 | 0.00 | 0.00 | 0.00 | 20 | 1008.1 |
| 20260905005504 | 74 | 248 | 9.0 | 25.0 | 0.00 | 0.00 | 0.00 | 21 | 1008.0 |
| 20260905005403 | 74 | 245 | 5.0 | 25.0 | 0.00 | 0.00 | 0.00 | 21 | 1008.1 |
| 20260905004903 | 74 | 258 | 17.0 | 25.0 | 0.00 | 0.00 | 0.00 | 20 | 1007.9 |
| 20260905004804 | 74 | 253 | 11.0 | 25.0 | 0.00 | 0.00 | 0.00 | 20 | 1007.9 |
| 20260905004703 | 74 | 260 | 13.0 | 27.0 | 0.00 | 0.00 | 0.00 | 20 | 1008.0 |
| 20260905004606 | 74 | 264 | 11.0 | 27.0 | 0.00 | 0.00 | 0.00 | 19 | 1008.0 |
| 20260905004504 | 74 | 264 | 11.0 | 27.0 | 0.00 | 0.00 | 0.00 | 19 | 1008.0 |
| 20260905004403 | 74 | 266 | 7.0 | 27.0 | 0.00 | 0.00 | 0.00 | 19 | 1007.9 |
| 20260905004303 | 74 | 267 | 11.0 | 27.0 | 0.00 | 0.00 | 0.00 | 19 | 1007.9 |
| 20260905004204 | 74 | 266 | 18.0 | 27.0 | 0.00 | 0.00 | 0.00 | 18 | 1007.8 |
| 20260905004103 | 74 | 266 | 12.0 | 27.0 | 0.00 | 0.00 | 0.00 | 19 | 1007.9 |
| 20260905004003 | 74 | 264 | 12.0 | 27.0 | 0.00 | 0.00 | 0.00 | 18 | 1007.9 |
| 20260905003904 | 75 | 269 | 15.0 | 27.0 | 0.00 | 0.00 | 0.00 | 18 | 1007.9 |
| 20260905003803 | 75 | 269 | 13.0 | 27.0 | 0.00 | 0.00 | 0.00 | 18 | 1007.9 |
| 20260905003703 | 75 | 265 | 19.0 | 27.0 | 0.00 | 0.00 | 0.00 | 17 | 1007.8 |
| 20260905003603 | 75 | 262 | 13.0 | 23.0 | 0.00 | 0.00 | 0.00 | 17 | 1007.9 |
| 20260905003504 | 75 | 259 | 13.0 | 23.0 | 0.00 | 0.00 | 0.00 | 18 | 1007.9 |
| 20260905003403 | 75 | 259 | 8.0 | 19.0 | 0.00 | 0.00 | 0.00 | 18 | 1008.0 |
| 20260905003303 | 76 | 262 | 11.0 | 19.0 | 0.00 | 0.00 | 0.00 | 18 | 1008.1 |
| 20260905003203 | 75 | 268 | 8.0 | 19.0 | 0.00 | 0.00 | 0.00 | 18 | 1008.0 |
| 20260905003004 | 75 | 249 | 8.0 | 19.0 | 0.00 | 0.00 | 0.00 | 18 | 1007.9 |
| 20260905002903 | 76 | 241 | 8.0 | 19.0 | 0.00 | 0.00 | 0.00 | 18 | 1007.9 |
| 20260905002803 | 76 | 241 | 13.0 | 23.0 | 0.00 | 0.00 | 0.00 | 18 | 1007.8 |
| 20260905002703 | 76 | 242 | 9.0 | 23.0 | 0.00 | 0.00 | 0.00 | 18 | 1007.9 |
| 20260905002604 | 76 | 240 | 9.0 | 23.0 | 0.00 | 0.00 | 0.00 | 18 | 1007.9 |
| 20260905002504 | 76 | 239 | 9.0 | 23.0 | 0.00 | 0.00 | 0.00 | 18 | 1007.9 |
| 20260905002403 | 76 | 232 | 5.0 | 23.0 | 0.00 | 0.00 | 0.00 | 18 | 1007.9 |
| 20260905002306 | 76 | 231 | 5.0 | 23.0 | 0.00 | 0.00 | 0.00 | 18 | 1007.9 |
| 20260905002203 | 76 | 228 | 4.0 | 23.0 | 0.00 | 0.00 | 0.00 | 18 | 1007.9 |
| 20260905002103 | 76 | 226 | 2.0 | 23.0 | 0.00 | 0.00 | 0.00 | 18 | 1008.0 |
| 20260905002003 | 76 | 229 | 11.0 | 23.0 | 0.00 | 0.00 | 0.00 | 18 | 1008.2 |
| 20260905001904 | 76 | 225 | 15.0 | 23.0 | 0.00 | 0.00 | 0.00 | 18 | 1007.8 |
| 20260905001803 | 76 | 213 | 7.0 | 16.0 | 0.00 | 0.00 | 0.00 | 18 | 1008.0 |
| 20260905001703 | 76 | 221 | 7.0 | 16.0 | 0.00 | 0.00 | 0.00 | 18 | 1008.0 |
| 20260905001603 | 76 | 224 | 4.0 | 16.0 | 0.00 | 0.00 | 0.00 | 19 | 1008.0 |
| 20260905001504 | 76 | 233 | 4.0 | 16.0 | 0.00 | 0.00 | 0.00 | 19 | 1008.0 |
| 20260905001404 | 76 | 244 | 3.0 | 16.0 | 0.00 | 0.00 | 0.00 | 18 | 1008.2 |
| 20260905001303 | 76 | 237 | 3.0 | 16.0 | 0.00 | 0.00 | 0.00 | 18 | 1008.0 |
| 20260905001203 | 76 | 242 | 4.0 | 16.0 | 0.00 | 0.00 | 0.00 | 18 | 1008.2 |
| 20260905001104 | 76 | 249 | 7.0 | 16.0 | 0.00 | 0.00 | 0.00 | 18 | 1008.1 |
| 20260905001004 | 76 | 250 | 4.0 | 16.0 | 0.00 | 0.00 | 0.00 | 18 | 1008.0 |
| 20260905000903 | 76 | 259 | 5.0 | 20.0 | 0.00 | 0.00 | 0.00 | 18 | 1008.1 |
| 20260905000803 | 76 | 266 | 8.0 | 20.0 | 0.00 | 0.00 | 0.00 | 18 | 1008.0 |
| 20260905000704 | 76 | 266 | 4.0 | 20.0 | 0.00 | 0.00 | 0.00 | 18 | 1007.9 |
| 20260905000604 | 76 | 270 | 4.0 | 20.0 | 0.00 | 0.00 | 0.00 | 18 | 1007.9 |
| 20260905000503 | 76 | 272 | 7.0 | 20.0 | 0.00 | 0.00 | 0.00 | 18 | 1008.0 |
| 20260905000404 | 76 | 264 | 8.0 | 20.0 | 0.00 | 0.00 | 0.00 | 18 | 1008.0 |
| 20260905000304 | 76 | 268 | 8.0 | 20.0 | 0.00 | 0.00 | 0.00 | 18 | 1008.0 |
| 20260905000204 | 76 | 265 | 5.0 | 20.0 | 0.00 | 0.00 | 0.00 | 18 | 1008.1 |
| 20260905000104 | 76 | 262 | 9.0 | 20.0 | 0.00 | 0.00 | 0.00 | 17 | 1008.0 |
| 20260905000003 | 76 | 269 | 14.0 | 20.0 | 0.00 | 0.00 | 0.00 | 17 | 1008.1 |
| 20260904235904 | 77 | 273 | 8.0 | 17.0 | 0.00 | 0.00 | 0.00 | 17 | 1007.9 |
| 20260904235804 | 77 | 270 | 11.0 | 17.0 | 0.00 | 0.00 | 0.00 | 17 | 1007.9 |
| 20260904235703 | 77 | 270 | 6.0 | 15.0 | 0.00 | 0.00 | 0.00 | 17 | 1007.8 |
| 20260904235604 | 77 | 265 | 7.0 | 15.0 | 0.00 | 0.00 | 0.00 | 17 | 1008.1 |
| 20260904235504 | 77 | 261 | 4.0 | 15.0 | 0.00 | 0.00 | 0.00 | 17 | 1008.0 |
| 20260904235004 | 77 | 277 | 7.0 | 14.0 | 0.00 | 0.00 | 0.00 | 17 | 1008.0 |
| 20260904234903 | 77 | 277 | 8.0 | 14.0 | 0.00 | 0.00 | 0.00 | 17 | 1008.0 |
| 20260904234804 | 77 | 281 | 4.0 | 14.0 | 0.00 | 0.00 | 0.00 | 17 | 1007.9 |
| 20260904234703 | 77 | 280 | 4.0 | 14.0 | 0.00 | 0.00 | 0.00 | 17 | 1007.9 |
| 20260904234604 | 77 | 286 | 11.0 | 14.0 | 0.00 | 0.00 | 0.00 | 17 | 1008.0 |
| 20260904234504 | 77 | 292 | 11.0 | 14.0 | 0.00 | 0.00 | 0.00 | 17 | 1007.9 |
| 20260904234403 | 77 | 294 | 6.0 | 12.0 | 0.00 | 0.00 | 0.00 | 17 | 1007.9 |
| 20260904234304 | 77 | 295 | 5.0 | 12.0 | 0.00 | 0.00 | 0.00 | 17 | 1007.9 |
| 20260904234204 | 77 | 291 | 4.0 | 12.0 | 0.00 | 0.00 | 0.00 | 17 | 1007.8 |
| 20260904234103 | 77 | 290 | 6.0 | 12.0 | 0.00 | 0.00 | 0.00 | 17 | 1008.0 |
| 20260904234004 | 77 | 286 | 4.0 | 12.0 | 0.00 | 0.00 | 0.00 | 17 | 1007.9 |
| 20260904233904 | 77 | 286 | 4.0 | 12.0 | 0.00 | 0.00 | 0.00 | 16 | 1008.0 |
| 20260904233803 | 77 | 284 | 4.0 | 13.0 | 0.00 | 0.00 | 0.00 | 17 | 1007.9 |
| 20260904233704 | 77 | 284 | 6.0 | 13.0 | 0.00 | 0.00 | 0.00 | 17 | 1007.9 |
| 20260904233603 | 78 | 283 | 6.0 | 21.0 | 0.00 | 0.00 | 0.00 | 17 | 1007.9 |
| 20260904233504 | 78 | 279 | 8.0 | 21.0 | 0.00 | 0.00 | 0.00 | 17 | 1007.9 |
| 20260904233404 | 78 | 282 | 4.0 | 21.0 | 0.00 | 0.00 | 0.00 | 17 | 1007.9 |
| 20260904232803 | 78 | 275 | 8.0 | 21.0 | 0.00 | 0.00 | 0.00 | 17 | 1007.8 |
| 20260904232703 | 78 | 275 | 10.0 | 21.0 | 0.00 | 0.00 | 0.00 | 17 | 1007.9 |
| 20260904232604 | 78 | 271 | 12.0 | 21.0 | 0.00 | 0.00 | 0.00 | 17 | 1007.8 |
| 20260904232504 | 78 | 271 | 8.0 | 16.0 | 0.00 | 0.00 | 0.00 | 17 | 1007.8 |
| 20260904232403 | 78 | 265 | 6.0 | 16.0 | 0.00 | 0.00 | 0.00 | 16 | 1007.8 |
| 20260904232306 | 78 | 259 | 11.0 | 16.0 | 0.00 | 0.00 | 0.00 | 16 | 1007.8 |
| 20260904232203 | 78 | 261 | 10.0 | 16.0 | 0.00 | 0.00 | 0.00 | 16 | 1007.7 |
| 20260904232104 | 78 | 256 | 10.0 | 16.0 | 0.00 | 0.00 | 0.00 | 15 | 1007.8 |
| 20260904232003 | 78 | 253 | 8.0 | 21.0 | 0.00 | 0.00 | 0.00 | 16 | 1007.8 |
| 20260904231904 | 79 | 258 | 10.0 | 21.0 | 0.00 | 0.00 | 0.00 | 15 | 1007.8 |
| 20260904231804 | 79 | 258 | 8.0 | 21.0 | 0.00 | 0.00 | 0.00 | 15 | 1007.8 |
| 20260904231703 | 79 | 258 | 7.0 | 21.0 | 0.00 | 0.00 | 0.00 | 15 | 1007.8 |
| 20260904231603 | 79 | 254 | 8.0 | 21.0 | 0.00 | 0.00 | 0.00 | 15 | 1007.7 |
| 20260904231504 | 79 | 243 | 8.0 | 21.0 | 0.00 | 0.00 | 0.00 | 15 | 1007.8 |
| 20260904231403 | 79 | 245 | 11.0 | 21.0 | 0.00 | 0.00 | 0.00 | 15 | 1007.8 |
| 20260904231303 | 78 | 245 | 11.0 | 21.0 | 0.00 | 0.00 | 0.00 | 14 | 1007.7 |
| 20260904231203 | 78 | 241 | 8.0 | 21.0 | 0.00 | 0.00 | 0.00 | 15 | 1007.8 |
| 20260904231104 | 78 | 238 | 9.0 | 21.0 | 0.00 | 0.00 | 0.00 | 15 | 1007.8 |
| 20260904231003 | 79 | 238 | 12.0 | 21.0 | 0.00 | 0.00 | 0.00 | 15 | 1007.7 |
| 20260904230903 | 79 | 233 | 11.0 | 21.0 | 0.00 | 0.00 | 0.00 | 14 | 1007.7 |
| 20260904230804 | 79 | 237 | 11.0 | 21.0 | 0.00 | 0.00 | 0.00 | 14 | 1007.7 |
| 20260904230703 | 79 | 237 | 11.0 | 21.0 | 0.00 | 0.00 | 0.00 | 14 | 1007.7 |
| 20260904230506 | 79 | 254 | 11.0 | 21.0 | 0.00 | 0.00 | 0.00 | 13 | 1007.7 |
| 20260904230405 | 80 | 254 | 10.0 | 21.0 | 0.00 | 0.00 | 0.00 | 13 | 1007.8 |
| 20260904230305 | 80 | 255 | 14.0 | 22.0 | 0.00 | 0.00 | 0.00 | 13 | 1007.7 |
| 20260904230205 | 80 | 254 | 10.0 | 22.0 | 0.00 | 0.00 | 0.00 | 14 | 1007.7 |
| 20260904230105 | 79 | 259 | 13.0 | 22.0 | 0.00 | 0.00 | 0.00 | 14 | 1007.7 |
| 20260904230006 | 79 | 267 | 15.0 | 22.0 | 0.00 | 0.00 | 0.00 | 13 | 1007.7 |
| 20260904225905 | 80 | 273 | 15.0 | 22.0 | 0.00 | 0.00 | 0.00 | 13 | 1007.7 |
| 20260904225806 | 80 | 268 | 10.0 | 22.0 | 0.00 | 0.00 | 0.00 | 14 | 1007.7 |
| 20260904225705 | 80 | 270 | 7.0 | 22.0 | 0.00 | 0.00 | 0.00 | 15 | 1007.7 |
| 20260904225606 | 79 | 267 | 7.0 | 22.0 | 0.00 | 0.00 | 0.00 | 14 | 1007.7 |
| 20260904225505 | 79 | 265 | 10.0 | 22.0 | 0.00 | 0.00 | 0.00 | 13 | 1007.6 |
| 20260904225005 | 79 | 262 | 8.0 | 19.0 | 0.00 | 0.00 | 0.00 | 15 | 1007.8 |
| 20260904224905 | 79 | 262 | 6.0 | 19.0 | 0.00 | 0.00 | 0.00 | 14 | 1007.7 |
| 20260904224805 | 79 | 260 | 14.0 | 19.0 | 0.00 | 0.00 | 0.00 | 13 | 1007.8 |
| 20260904224705 | 80 | 255 | 12.0 | 17.0 | 0.00 | 0.00 | 0.00 | 14 | 1007.8 |
| 20260904224605 | 80 | 247 | 11.0 | 18.0 | 0.00 | 0.00 | 0.00 | 14 | 1007.8 |
| 20260904224505 | 80 | 252 | 11.0 | 18.0 | 0.00 | 0.00 | 0.00 | 14 | 1007.7 |
| 20260904224305 | 80 | 262 | 8.0 | 18.0 | 0.00 | 0.00 | 0.00 | 13 | 1007.8 |
| 20260904224205 | 79 | 270 | 8.0 | 18.0 | 0.00 | 0.00 | 0.00 | 13 | 1007.8 |
| 20260904224105 | 79 | 262 | 9.0 | 18.0 | 0.00 | 0.00 | 0.00 | 13 | 1007.8 |
| 20260904224006 | 79 | 267 | 10.0 | 18.0 | 0.00 | 0.00 | 0.00 | 12 | 1007.7 |
| 20260904223905 | 79 | 264 | 11.0 | 18.0 | 0.00 | 0.00 | 0.00 | 12 | 1007.7 |
| 20260904223805 | 79 | 262 | 11.0 | 18.0 | 0.00 | 0.00 | 0.00 | 13 | 1007.8 |
| 20260904223705 | 79 | 262 | 11.0 | 18.0 | 0.00 | 0.00 | 0.00 | 14 | 1007.8 |
| 20260904223605 | 80 | 269 | 11.0 | 17.0 | 0.00 | 0.00 | 0.00 | 14 | 1007.8 |
| 20260904223505 | 80 | 265 | 11.0 | 17.0 | 0.00 | 0.00 | 0.00 | 14 | 1007.8 |
| 20260904223406 | 80 | 260 | 8.0 | 17.0 | 0.00 | 0.00 | 0.00 | 13 | 1007.8 |
| 20260904223305 | 79 | 260 | 6.0 | 17.0 | 0.00 | 0.00 | 0.00 | 13 | 1007.7 |
| 20260904223206 | 79 | 257 | 10.0 | 21.0 | 0.00 | 0.00 | 0.00 | 14 | 1007.8 |
| 20260904223106 | 79 | 266 | 9.0 | 23.0 | 0.00 | 0.00 | 0.00 | 14 | 1007.8 |
| 20260904223005 | 79 | 262 | 9.0 | 23.0 | 0.00 | 0.00 | 0.00 | 14 | 1007.7 |
| 20260904222906 | 78 | 263 | 7.0 | 23.0 | 0.00 | 0.00 | 0.00 | 15 | 1007.8 |
| 20260904222805 | 78 | 267 | 8.0 | 23.0 | 0.00 | 0.00 | 0.00 | 16 | 1007.8 |
| 20260904222706 | 78 | 268 | 12.0 | 23.0 | 0.00 | 0.00 | 0.00 | 16 | 1007.8 |
| 20260904222605 | 78 | 266 | 11.0 | 23.0 | 0.00 | 0.00 | 0.00 | 16 | 1007.7 |
| 20260904222505 | 78 | 263 | 13.0 | 23.0 | 0.00 | 0.00 | 0.00 | 16 | 1007.8 |
| 20260904222405 | 79 | 258 | 11.0 | 23.0 | 0.00 | 0.00 | 0.00 | 16 | 1007.8 |
| 20260904221805 | 80 | 242 | 11.0 | 24.0 | 0.00 | 0.00 | 0.00 | 15 | 1007.8 |
| 20260904221705 | 80 | 244 | 12.0 | 24.0 | 0.00 | 0.00 | 0.00 | 15 | 1007.8 |
| 20260904221605 | 80 | 253 | 9.0 | 24.0 | 0.00 | 0.00 | 0.00 | 12 | 1007.6 |
| 20260904221506 | 80 | 259 | 9.0 | 24.0 | 0.00 | 0.00 | 0.00 | 12 | 1007.6 |
| 20260904221405 | 80 | 266 | 7.0 | 24.0 | 0.00 | 0.00 | 0.00 | 12 | 1007.6 |
| 20260904221305 | 80 | 281 | 15.0 | 24.0 | 0.00 | 0.00 | 0.00 | 12 | 1007.8 |
| 20260904221205 | 80 | 276 | 12.0 | 21.0 | 0.00 | 0.00 | 0.00 | 13 | 1007.7 |
| 20260904221106 | 80 | 280 | 11.0 | 21.0 | 0.00 | 0.00 | 0.00 | 13 | 1007.7 |
| 20260904221005 | 79 | 286 | 7.0 | 21.0 | 0.00 | 0.00 | 0.00 | 14 | 1007.6 |
| 20260904220905 | 79 | 286 | 4.0 | 21.0 | 0.00 | 0.00 | 0.00 | 15 | 1007.7 |
| 20260904220806 | 80 | 284 | 10.0 | 21.0 | 0.00 | 0.00 | 0.00 | 15 | 1007.7 |
| 20260904220705 | 80 | 280 | 12.0 | 21.0 | 0.00 | 0.00 | 0.00 | 15 | 1007.7 |
| 20260904220605 | 80 | 270 | 11.0 | 18.0 | 0.00 | 0.00 | 0.00 | 14 | 1007.7 |
| 20260904220506 | 80 | 264 | 7.0 | 17.0 | 0.00 | 0.00 | 0.00 | 13 | 1007.8 |
| 20260904220405 | 80 | 256 | 13.0 | 17.0 | 0.00 | 0.00 | 0.00 | 13 | 1007.8 |
| 20260904220306 | 80 | 249 | 10.0 | 17.0 | 0.00 | 0.00 | 0.00 | 14 | 1007.7 |
| 20260904220105 | 81 | 247 | 12.0 | 17.0 | 0.00 | 0.00 | 0.00 | 13 | 1007.9 |
| 20260904220005 | 80 | 252 | 12.0 | 17.0 | 0.00 | 0.00 | 0.00 | 13 | 1007.8 |
| 20260904215905 | 80 | 258 | 8.0 | 15.0 | 0.00 | 0.00 | 0.00 | 12 | 1007.7 |
| 20260904215805 | 80 | 260 | 7.0 | 15.0 | 0.00 | 0.00 | 0.00 | 12 | 1007.7 |
| 20260904215705 | 80 | 260 | 9.0 | 15.0 | 0.00 | 0.00 | 0.00 | 12 | 1007.7 |
| 20260904215106 | 80 | 269 | 8.0 | 20.0 | 0.00 | 0.00 | 0.00 | 16 | 1007.6 |
| 20260904215005 | 80 | 268 | 9.0 | 20.0 | 0.00 | 0.00 | 0.00 | 16 | 1007.6 |
| 20260904214905 | 80 | 266 | 8.0 | 20.0 | 0.00 | 0.00 | 0.00 | 15 | 1007.6 |
| 20260904214805 | 80 | 266 | 9.0 | 20.0 | 0.00 | 0.00 | 0.00 | 15 | 1007.8 |
| 20260904214705 | 80 | 262 | 14.0 | 20.0 | 0.00 | 0.00 | 0.00 | 14 | 1007.8 |
| 20260904214605 | 80 | 260 | 9.0 | 20.0 | 0.00 | 0.00 | 0.00 | 15 | 1007.8 |
| 20260904214406 | 80 | 262 | 13.0 | 20.0 | 0.00 | 0.00 | 0.00 | 15 | 1007.7 |
| 20260904214305 | 80 | 264 | 14.0 | 22.0 | 0.00 | 0.00 | 0.00 | 14 | 1007.6 |
| 20260904214206 | 80 | 264 | 11.0 | 22.0 | 0.00 | 0.00 | 0.00 | 14 | 1007.7 |
| 20260904214105 | 80 | 265 | 15.0 | 22.0 | 0.00 | 0.00 | 0.00 | 14 | 1007.5 |
| 20260904213905 | 81 | 253 | 13.0 | 22.0 | 0.00 | 0.00 | 0.00 | 14 | 1007.7 |
| 20260904213805 | 81 | 249 | 10.0 | 22.0 | 0.00 | 0.00 | 0.00 | 13 | 1007.8 |
| 20260904213705 | 81 | 253 | 8.0 | 22.0 | 0.00 | 0.00 | 0.00 | 13 | 1007.8 |
| 20260904213605 | 81 | 253 | 8.0 | 22.0 | 0.00 | 0.00 | 0.00 | 12 | 1007.8 |
| 20260904213505 | 81 | 256 | 9.0 | 22.0 | 0.00 | 0.00 | 0.00 | 11 | 1007.7 |
| 20260904213405 | 81 | 253 | 15.0 | 22.0 | 0.00 | 0.00 | 0.00 | 12 | 1007.7 |
| 20260904213305 | 81 | 245 | 15.0 | 22.0 | 0.00 | 0.00 | 0.00 | 11 | 1007.6 |
| 20260904213206 | 81 | 236 | 6.0 | 17.0 | 0.00 | 0.00 | 0.00 | 14 | 1007.6 |
| 20260904213105 | 81 | 233 | 4.0 | 17.0 | 0.00 | 0.00 | 0.00 | 13 | 1007.7 |
| 20260904213005 | 81 | 237 | 4.0 | 17.0 | 0.00 | 0.00 | 0.00 | 13 | 1007.8 |
| 20260904212905 | 80 | 241 | 6.0 | 17.0 | 0.00 | 0.00 | 0.00 | 11 | 1007.8 |
| 20260904212806 | 80 | 238 | 4.0 | 17.0 | 0.00 | 0.00 | 0.00 | 10 | 1007.8 |
| 20260904212705 | 80 | 233 | 8.0 | 17.0 | 0.00 | 0.00 | 0.00 | 11 | 1007.9 |
| 20260904212605 | 80 | 233 | 6.0 | 17.0 | 0.00 | 0.00 | 0.00 | 12 | 1007.8 |
| 20260904212506 | 80 | 229 | 7.0 | 17.0 | 0.00 | 0.00 | 0.00 | 12 | 1007.7 |
| 20260904212405 | 80 | 235 | 7.0 | 23.0 | 0.00 | 0.00 | 0.00 | 11 | 1007.6 |
| 20260904212306 | 80 | 236 | 12.0 | 23.0 | 0.00 | 0.00 | 0.00 | 11 | 1007.7 |
| 20260904212205 | 80 | 242 | 9.0 | 23.0 | 0.00 | 0.00 | 0.00 | 12 | 1007.7 |
| 20260904212105 | 80 | 245 | 8.0 | 23.0 | 0.00 | 0.00 | 0.00 | 13 | 1007.7 |
| 20260904212006 | 80 | 242 | 3.0 | 23.0 | 0.00 | 0.00 | 0.00 | 13 | 1007.6 |
| 20260904211905 | 80 | 242 | 2.0 | 23.0 | 0.00 | 0.00 | 0.00 | 13 | 1007.6 |
| 20260904211805 | 80 | 238 | 1.0 | 23.0 | 0.00 | 0.00 | 0.00 | 13 | 1007.7 |
| 20260904211705 | 80 | 240 | 5.0 | 23.0 | 0.00 | 0.00 | 0.00 | 13 | 1007.8 |
| 20260904211606 | 80 | 245 | 13.0 | 23.0 | 0.00 | 0.00 | 0.00 | 13 | 1007.8 |
| 20260904211505 | 80 | 251 | 13.0 | 23.0 | 0.00 | 0.00 | 0.00 | 13 | 1007.8 |
| 20260904211405 | 80 | 257 | 14.0 | 23.0 | 0.00 | 0.00 | 0.00 | 12 | 1007.7 |
| 20260904211305 | 80 | 244 | 6.0 | 13.0 | 0.00 | 0.00 | 0.00 | 11 | 1007.6 |
| 20260904211206 | 80 | 227 | 5.0 | 15.0 | 0.00 | 0.00 | 0.00 | 10 | 1007.8 |
| 20260904210605 | 80 | 240 | 4.0 | 15.0 | 0.00 | 0.00 | 0.00 | 10 | 1007.8 |
| 20260904210505 | 80 | 235 | 3.0 | 15.0 | 0.00 | 0.00 | 0.00 | 11 | 1007.7 |
| 20260904210405 | 80 | 234 | 6.0 | 15.0 | 0.00 | 0.00 | 0.00 | 11 | 1007.7 |
| 20260904210305 | 80 | 240 | 4.0 | 15.0 | 0.00 | 0.00 | 0.00 | 12 | 1007.7 |
| 20260904210205 | 80 | 248 | 6.0 | 15.0 | 0.00 | 0.00 | 0.00 | 12 | 1007.7 |
| 20260904210105 | 79 | 258 | 9.0 | 12.0 | 0.00 | 0.00 | 0.00 | 11 | 1007.7 |
| 20260904210005 | 79 | 254 | 7.0 | 12.0 | 0.00 | 0.00 | 0.00 | 11 | 1007.8 |
| 20260904205905 | 79 | 248 | 4.0 | 12.0 | 0.00 | 0.00 | 0.00 | 11 | 1007.8 |
| 20260904205805 | 79 | 252 | 6.0 | 15.0 | 0.00 | 0.00 | 0.00 | 10 | 1007.8 |
| 20260904205705 | 80 | 245 | 8.0 | 16.0 | 0.00 | 0.00 | 0.00 | 10 | 1007.8 |
| 20260904205605 | 80 | 239 | 4.0 | 17.0 | 0.00 | 0.00 | 0.00 | 10 | 1007.9 |
| 20260904205505 | 80 | 227 | 4.0 | 17.0 | 0.00 | 0.00 | 0.00 | 10 | 1007.8 |
| 20260904205405 | 80 | 224 | 1.0 | 17.0 | 0.00 | 0.00 | 0.00 | 10 | 1007.8 |
| 20260904205306 | 80 | 221 | 2.0 | 17.0 | 0.00 | 0.00 | 0.00 | 10 | 1007.9 |
| 20260904205205 | 80 | 218 | 7.0 | 17.0 | 0.00 | 0.00 | 0.00 | 10 | 1007.8 |
| 20260904205105 | 80 | 212 | 6.0 | 17.0 | 0.00 | 0.00 | 0.00 | 10 | 1007.8 |
| 20260904205005 | 80 | 211 | 4.0 | 17.0 | 0.00 | 0.00 | 0.00 | 10 | 1007.8 |
| 20260904204905 | 80 | 206 | 5.0 | 17.0 | 0.00 | 0.00 | 0.00 | 10 | 1007.8 |
| 20260904204806 | 80 | 197 | 13.0 | 17.0 | 0.00 | 0.00 | 0.00 | 10 | 1007.7 |
| 20260904204705 | 80 | 191 | 11.0 | 17.0 | 0.00 | 0.00 | 0.00 | 10 | 1007.8 |
| 20260904204605 | 80 | 182 | 8.0 | 17.0 | 0.00 | 0.00 | 0.00 | 10 | 1007.7 |
| 20260904204505 | 80 | 189 | 8.0 | 17.0 | 0.00 | 0.00 | 0.00 | 10 | 1007.8 |
| 20260904204405 | 80 | 190 | 3.0 | 14.0 | 0.00 | 0.00 | 0.00 | 11 | 1007.8 |
| 20260904204305 | 80 | 200 | 2.0 | 17.0 | 0.00 | 0.00 | 0.00 | 12 | 1007.8 |
| 20260904204205 | 80 | 197 | 5.0 | 17.0 | 0.00 | 0.00 | 0.00 | 11 | 1007.8 |
| 20260904204105 | 80 | 198 | 5.0 | 17.0 | 0.00 | 0.00 | 0.00 | 11 | 1007.8 |
| 20260904204005 | 80 | 199 | 6.0 | 17.0 | 0.00 | 0.00 | 0.00 | 11 | 1007.9 |
| 20260904203905 | 80 | 198 | 7.0 | 17.0 | 0.00 | 0.00 | 0.00 | 11 | 1007.8 |
| 20260904203805 | 80 | 195 | 4.0 | 17.0 | 0.00 | 0.00 | 0.00 | 11 | 1007.8 |
| 20260904203705 | 80 | 204 | 3.0 | 17.0 | 0.00 | 0.00 | 0.00 | 11 | 1007.8 |
| 20260904203605 | 80 | 220 | 4.0 | 17.0 | 0.00 | 0.00 | 0.00 | 11 | 1007.9 |
| 20260904203505 | 80 | 218 | 7.0 | 17.0 | 0.00 | 0.00 | 0.00 | 10 | 1007.9 |
| 20260904203405 | 79 | 218 | 10.0 | 17.0 | 0.00 | 0.00 | 0.00 | 11 | 1007.9 |
| 20260904203305 | 79 | 218 | 9.0 | 17.0 | 0.00 | 0.00 | 0.00 | 12 | 1008.0 |
| 20260904203205 | 79 | 0 | 0.0 | 16.0 | 0.00 | 0.00 | 0.00 | 14 | 1008.0 |
| 20260904203105 | 79 | 241 | 2.0 | 16.0 | 0.00 | 0.00 | 0.00 | 16 | 1008.0 |
| 20260904203006 | 79 | 243 | 2.0 | 16.0 | 0.00 | 0.00 | 0.00 | 16 | 1007.9 |
| 20260904202905 | 79 | 250 | 4.0 | 17.0 | 0.00 | 0.00 | 0.00 | 15 | 1008.1 |
| 20260904202805 | 79 | 259 | 3.0 | 17.0 | 0.00 | 0.00 | 0.00 | 15 | 1007.9 |
| 20260904202705 | 79 | 260 | 4.0 | 17.0 | 0.00 | 0.00 | 0.00 | 15 | 1008.0 |
| 20260904202605 | 79 | 261 | 8.0 | 17.0 | 0.00 | 0.00 | 0.00 | 14 | 1008.0 |
| 20260904202505 | 79 | 261 | 9.0 | 17.0 | 0.00 | 0.00 | 0.00 | 12 | 1008.1 |
| 20260904202405 | 79 | 265 | 11.0 | 17.0 | 0.00 | 0.00 | 0.00 | 15 | 1008.0 |
| 20260904202306 | 79 | 269 | 11.0 | 17.0 | 0.00 | 0.00 | 0.00 | 15 | 1008.1 |
| 20260904202206 | 79 | 259 | 9.0 | 17.0 | 0.00 | 0.00 | 0.00 | 14 | 1008.1 |
| 20260904202105 | 79 | 252 | 10.0 | 17.0 | 0.00 | 0.00 | 0.00 | 14 | 1008.0 |
| 20260904202006 | 80 | 255 | 14.0 | 17.0 | 0.00 | 0.00 | 0.00 | 14 | 1008.2 |
| 20260904201905 | 80 | 249 | 11.0 | 17.0 | 0.00 | 0.00 | 0.00 | 14 | 1008.1 |
| 20260904201805 | 80 | 228 | 4.0 | 11.0 | 0.00 | 0.00 | 0.00 | 11 | 1007.9 |
| 20260904201706 | 80 | 225 | 2.0 | 11.0 | 0.00 | 0.00 | 0.00 | 12 | 1008.0 |
| 20260904201606 | 80 | 225 | 1.0 | 15.0 | 0.00 | 0.00 | 0.00 | 11 | 1008.1 |
| 20260904201505 | 80 | 232 | 1.0 | 15.0 | 0.00 | 0.00 | 0.00 | 11 | 1008.1 |
| 20260904201405 | 80 | 233 | 1.0 | 15.0 | 0.00 | 0.00 | 0.00 | 11 | 1008.1 |
| 20260904201305 | 80 | 234 | 2.0 | 15.0 | 0.00 | 0.00 | 0.00 | 11 | 1008.1 |
| 20260904201205 | 80 | 241 | 2.0 | 15.0 | 0.00 | 0.00 | 0.00 | 11 | 1008.1 |
| 20260904201105 | 80 | 243 | 4.0 | 15.0 | 0.00 | 0.00 | 0.00 | 11 | 1008.1 |
| 20260904201006 | 80 | 241 | 4.0 | 15.0 | 0.00 | 0.00 | 0.00 | 11 | 1008.1 |
| 20260904200905 | 80 | 238 | 7.0 | 17.0 | 0.00 | 0.00 | 0.00 | 11 | 1008.1 |
| 20260904200805 | 80 | 241 | 8.0 | 17.0 | 0.00 | 0.00 | 0.00 | 11 | 1008.1 |
| 20260904200706 | 80 | 244 | 11.0 | 17.0 | 0.00 | 0.00 | 0.00 | 11 | 1008.1 |
| 20260904200605 | 79 | 246 | 7.0 | 17.0 | 0.00 | 0.00 | 0.00 | 11 | 1007.9 |
| 20260904200506 | 79 | 240 | 7.0 | 17.0 | 0.00 | 0.00 | 0.00 | 11 | 1008.0 |
| 20260904200405 | 79 | 236 | 5.0 | 17.0 | 0.00 | 0.00 | 0.00 | 12 | 1008.0 |
| 20260904200305 | 79 | 233 | 3.0 | 17.0 | 0.00 | 0.00 | 0.00 | 12 | 1007.9 |
| 20260904200205 | 78 | 233 | 7.0 | 17.0 | 0.00 | 0.00 | 0.00 | 12 | 1008.1 |
| 20260904200105 | 78 | 226 | 7.0 | 17.0 | 0.00 | 0.00 | 0.00 | 12 | 1008.1 |
| 20260904200005 | 78 | 231 | 8.0 | 17.0 | 0.00 | 0.00 | 0.00 | 12 | 1008.0 |
| 20260904195905 | 78 | 233 | 7.0 | 17.0 | 0.00 | 0.00 | 0.00 | 12 | 1008.1 |
| 20260904195805 | 79 | 228 | 2.0 | 17.0 | 0.00 | 0.00 | 0.00 | 12 | 1008.1 |
| 20260904195706 | 79 | 221 | 2.0 | 17.0 | 0.00 | 0.00 | 0.00 | 12 | 1008.1 |
| 20260904195605 | 79 | 219 | 6.0 | 17.0 | 0.00 | 0.00 | 0.00 | 11 | 1008.2 |
| 20260904195406 | 80 | 215 | 11.0 | 17.0 | 0.00 | 0.00 | 0.00 | 11 | 1008.2 |
| 20260904195308 | 80 | 211 | 8.0 | 14.0 | 0.00 | 0.00 | 0.00 | 11 | 1008.1 |
| 20260904195206 | 80 | 174 | 8.0 | 14.0 | 0.00 | 0.00 | 0.00 | 11 | 1008.0 |
| 20260904195105 | 80 | 158 | 8.0 | 11.0 | 0.00 | 0.00 | 0.00 | 11 | 1008.0 |
| 20260904195005 | 80 | 124 | 7.0 | 11.0 | 0.00 | 0.00 | 0.00 | 11 | 1008.1 |
| 20260904194906 | 80 | 106 | 6.0 | 11.0 | 0.00 | 0.00 | 0.00 | 12 | 1008.2 |
| 20260904194806 | 80 | 109 | 2.0 | 8.0 | 0.00 | 0.00 | 0.00 | 13 | 1008.2 |
| 20260904194605 | 79 | 117 | 2.0 | 9.0 | 0.00 | 0.00 | 0.00 | 13 | 1008.1 |
| 20260904194505 | 79 | 139 | 2.0 | 14.0 | 0.00 | 0.00 | 0.00 | 13 | 1008.2 |
| 20260904194405 | 79 | 155 | 2.0 | 14.0 | 0.00 | 0.00 | 0.00 | 13 | 1008.2 |
| 20260904194305 | 79 | 164 | 2.0 | 14.0 | 0.00 | 0.00 | 0.00 | 13 | 1008.3 |
| 20260904194205 | 79 | 169 | 1.0 | 14.0 | 0.00 | 0.00 | 0.00 | 13 | 1008.2 |
| 20260904194106 | 79 | 173 | 2.0 | 14.0 | 0.00 | 0.00 | 0.00 | 13 | 1008.2 |
| 20260904194005 | 79 | 183 | 3.0 | 14.0 | 0.00 | 0.00 | 0.00 | 14 | 1008.3 |
| 20260904193906 | 78 | 188 | 4.0 | 14.0 | 0.00 | 0.00 | 0.00 | 13 | 1008.3 |
| 20260904193805 | 78 | 196 | 3.0 | 14.0 | 0.00 | 0.00 | 0.00 | 13 | 1008.2 |
| 20260904193705 | 78 | 203 | 2.0 | 14.0 | 0.00 | 0.00 | 0.00 | 13 | 1008.3 |
| 20260904193505 | 78 | 214 | 7.0 | 14.0 | 0.00 | 0.00 | 0.00 | 12 | 1008.3 |
| 20260904193405 | 78 | 228 | 7.0 | 14.0 | 0.00 | 0.00 | 0.00 | 12 | 1008.4 |
| 20260904193306 | 78 | 245 | 7.0 | 14.0 | 0.00 | 0.00 | 0.00 | 12 | 1008.3 |
| 20260904193205 | 78 | 253 | 7.0 | 14.0 | 0.00 | 0.00 | 0.00 | 12 | 1008.3 |
| 20260904193105 | 78 | 259 | 3.0 | 10.0 | 0.00 | 0.00 | 0.00 | 13 | 1008.4 |
| 20260904193006 | 78 | 254 | 3.0 | 10.0 | 0.00 | 0.00 | 0.00 | 13 | 1008.4 |
| 20260904192905 | 78 | 248 | 4.0 | 12.0 | 0.00 | 0.00 | 0.00 | 12 | 1008.3 |
| 20260904192805 | 78 | 239 | 2.0 | 12.0 | 0.00 | 0.00 | 0.00 | 13 | 1008.3 |
| 20260904192705 | 78 | 236 | 2.0 | 12.0 | 0.00 | 0.00 | 0.00 | 12 | 1008.3 |
| 20260904192605 | 78 | 233 | 4.0 | 12.0 | 0.00 | 0.00 | 0.00 | 13 | 1008.4 |
| 20260904192505 | 78 | 231 | 2.0 | 12.0 | 0.00 | 0.00 | 0.00 | 13 | 1008.5 |
| 20260904192405 | 78 | 227 | 8.0 | 12.0 | 0.00 | 0.00 | 0.00 | 13 | 1008.5 |
| 20260904192306 | 78 | 220 | 5.0 | 12.0 | 0.00 | 0.00 | 0.00 | 14 | 1008.3 |
| 20260904192206 | 78 | 219 | 5.0 | 12.0 | 0.00 | 0.00 | 0.00 | 13 | 1008.4 |
| 20260904192105 | 78 | 212 | 5.0 | 12.0 | 0.00 | 0.00 | 0.00 | 13 | 1008.4 |
| 20260904192005 | 78 | 222 | 8.0 | 12.0 | 0.00 | 0.00 | 0.00 | 14 | 1008.5 |
| 20260904191905 | 78 | 237 | 8.0 | 12.0 | 0.00 | 0.00 | 0.00 | 14 | 1008.4 |
| 20260904191805 | 78 | 256 | 4.0 | 10.0 | 0.00 | 0.00 | 0.00 | 14 | 1008.5 |
| 20260904191705 | 77 | 282 | 1.0 | 10.0 | 0.00 | 0.00 | 0.00 | 14 | 1008.6 |
| 20260904191605 | 77 | 261 | 2.0 | 11.0 | 0.00 | 0.00 | 0.00 | 15 | 1008.5 |
| 20260904191505 | 77 | 255 | 2.0 | 11.0 | 0.00 | 0.00 | 0.00 | 15 | 1008.5 |
| 20260904191405 | 77 | 249 | 1.0 | 11.0 | 0.00 | 0.00 | 0.00 | 15 | 1008.5 |
| 20260904191305 | 77 | 261 | 1.0 | 11.0 | 0.00 | 0.00 | 0.00 | 14 | 1008.5 |
| 20260904191205 | 77 | 257 | 2.0 | 11.0 | 0.00 | 0.00 | 0.00 | 14 | 1008.6 |
| 20260904191105 | 77 | 255 | 3.0 | 11.0 | 0.00 | 0.00 | 0.00 | 14 | 1008.6 |
| 20260904191005 | 77 | 252 | 4.0 | 11.0 | 0.00 | 0.00 | 0.00 | 14 | 1008.5 |
| 20260904190906 | 77 | 244 | 6.0 | 11.0 | 0.00 | 0.00 | 0.00 | 14 | 1008.6 |
| 20260904190805 | 77 | 251 | 7.0 | 11.0 | 0.00 | 0.00 | 0.00 | 14 | 1008.6 |
| 20260904190705 | 77 | 248 | 5.0 | 11.0 | 0.00 | 0.00 | 0.00 | 15 | 1008.6 |
| 20260904190605 | 77 | 265 | 4.0 | 11.0 | 0.00 | 0.00 | 0.00 | 14 | 1008.4 |
| 20260904190506 | 77 | 261 | 4.0 | 11.0 | 0.00 | 0.00 | 0.00 | 14 | 1008.5 |
| 20260904190405 | 77 | 262 | 7.0 | 11.0 | 0.00 | 0.00 | 0.00 | 15 | 1008.7 |
| 20260904190305 | 77 | 252 | 8.0 | 11.0 | 0.00 | 0.00 | 0.00 | 15 | 1008.6 |
| 20260904190105 | 77 | 262 | 2.0 | 11.0 | 0.00 | 0.00 | 0.00 | 16 | 1008.6 |
| 20260904190005 | 76 | 266 | 2.0 | 11.0 | 0.00 | 0.00 | 0.00 | 16 | 1008.6 |
| 20260904185905 | 76 | 267 | 4.0 | 11.0 | 0.00 | 0.00 | 0.00 | 15 | 1008.6 |
| 20260904185805 | 76 | 263 | 4.0 | 11.0 | 0.00 | 0.00 | 0.00 | 15 | 1008.5 |
| 20260904185705 | 76 | 260 | 4.0 | 11.0 | 0.00 | 0.00 | 0.00 | 15 | 1008.6 |
| 20260904185605 | 76 | 253 | 4.0 | 11.0 | 0.00 | 0.00 | 0.00 | 16 | 1008.6 |
| 20260904185505 | 76 | 263 | 4.0 | 11.0 | 0.00 | 0.00 | 0.00 | 16 | 1008.6 |
| 20260904185405 | 76 | 262 | 6.0 | 11.0 | 0.00 | 0.00 | 0.00 | 16 | 1008.6 |
| 20260904185306 | 76 | 265 | 5.0 | 14.0 | 0.00 | 0.00 | 0.00 | 16 | 1008.6 |
| 20260904185205 | 76 | 262 | 4.0 | 14.0 | 0.00 | 0.00 | 0.00 | 15 | 1008.6 |
| 20260904185105 | 77 | 260 | 5.0 | 14.0 | 0.00 | 0.00 | 0.00 | 15 | 1008.6 |
| 20260904185005 | 77 | 254 | 7.0 | 14.0 | 0.00 | 0.00 | 0.00 | 15 | 1008.8 |
| 20260904184906 | 77 | 254 | 5.0 | 14.0 | 0.00 | 0.00 | 0.00 | 15 | 1008.7 |
| 20260904184805 | 77 | 252 | 4.0 | 14.0 | 0.00 | 0.00 | 0.00 | 15 | 1008.7 |
| 20260904184705 | 76 | 265 | 5.0 | 14.0 | 0.00 | 0.00 | 0.00 | 15 | 1008.7 |
| 20260904184606 | 76 | 280 | 6.0 | 14.0 | 0.00 | 0.00 | 0.00 | 15 | 1008.7 |
| 20260904184505 | 76 | 271 | 6.0 | 14.0 | 0.00 | 0.00 | 0.00 | 15 | 1008.8 |
| 20260904184405 | 76 | 275 | 8.0 | 14.0 | 0.00 | 0.00 | 0.00 | 16 | 1008.8 |
| 20260904184305 | 76 | 273 | 7.0 | 12.0 | 0.00 | 0.00 | 0.00 | 16 | 1008.7 |
| 20260904184205 | 76 | 270 | 4.0 | 12.0 | 0.00 | 0.00 | 0.00 | 16 | 1008.7 |
| 20260904184105 | 76 | 274 | 5.0 | 12.0 | 0.00 | 0.00 | 0.00 | 16 | 1008.8 |
| 20260904184006 | 76 | 0 | 0.0 | 12.0 | 0.00 | 0.00 | 0.00 | 16 | 1008.7 |
| 20260904183905 | 76 | 259 | 2.0 | 14.0 | 0.00 | 0.00 | 0.00 | 15 | 1008.8 |
| 20260904183805 | 76 | 266 | 6.0 | 14.0 | 0.00 | 0.00 | 0.00 | 15 | 1008.8 |
| 20260904183705 | 76 | 263 | 7.0 | 14.0 | 0.00 | 0.00 | 0.00 | 16 | 1008.8 |
| 20260904183605 | 75 | 250 | 6.0 | 14.0 | 0.00 | 0.00 | 0.00 | 17 | 1008.9 |
| 20260904183505 | 75 | 247 | 3.0 | 14.0 | 0.00 | 0.00 | 0.00 | 17 | 1008.8 |
| 20260904183405 | 75 | 250 | 4.0 | 14.0 | 0.00 | 0.00 | 0.00 | 17 | 1008.8 |
| 20260904183305 | 75 | 246 | 6.0 | 14.0 | 0.00 | 0.00 | 0.00 | 18 | 1008.8 |
| 20260904183206 | 74 | 246 | 4.0 | 14.0 | 0.00 | 0.00 | 0.00 | 17 | 1008.8 |
| 20260904183105 | 74 | 244 | 6.0 | 14.0 | 0.00 | 0.00 | 0.00 | 17 | 1008.8 |
| 20260904183005 | 74 | 248 | 6.0 | 14.0 | 0.00 | 0.00 | 0.00 | 17 | 1008.8 |
| 20260904182905 | 74 | 256 | 9.0 | 14.0 | 0.00 | 0.00 | 0.00 | 17 | 1008.8 |
| 20260904182805 | 75 | 254 | 8.0 | 13.0 | 0.00 | 0.00 | 0.00 | 17 | 1008.8 |
| 20260904182705 | 75 | 252 | 9.0 | 13.0 | 0.00 | 0.00 | 0.00 | 17 | 1008.8 |
| 20260904182605 | 75 | 255 | 4.0 | 11.0 | 0.00 | 0.00 | 0.00 | 17 | 1008.8 |
| 20260904182505 | 75 | 253 | 8.0 | 11.0 | 0.00 | 0.00 | 0.00 | 17 | 1008.8 |
| 20260904182405 | 75 | 250 | 7.0 | 11.0 | 0.00 | 0.00 | 0.00 | 17 | 1008.8 |
| 20260904182306 | 75 | 254 | 7.0 | 11.0 | 0.00 | 0.00 | 0.00 | 17 | 1008.8 |
| 20260904182205 | 75 | 255 | 4.0 | 11.0 | 0.00 | 0.00 | 0.00 | 17 | 1008.7 |
| 20260904182105 | 75 | 257 | 7.0 | 11.0 | 0.00 | 0.00 | 0.00 | 17 | 1008.7 |
| 20260904182005 | 75 | 255 | 4.0 | 11.0 | 0.00 | 0.00 | 0.00 | 17 | 1008.8 |
| 20260904181905 | 75 | 248 | 4.0 | 12.0 | 0.00 | 0.00 | 0.00 | 17 | 1008.9 |
| 20260904181805 | 75 | 244 | 8.0 | 12.0 | 0.00 | 0.00 | 0.00 | 17 | 1008.8 |
| 20260904181705 | 75 | 243 | 6.0 | 12.0 | 0.00 | 0.00 | 0.00 | 17 | 1008.9 |
| 20260904181605 | 75 | 250 | 9.0 | 14.0 | 0.00 | 0.00 | 0.00 | 17 | 1008.8 |
| 20260904181505 | 75 | 251 | 9.0 | 14.0 | 0.00 | 0.00 | 0.00 | 17 | 1008.9 |
| 20260904181405 | 75 | 256 | 5.0 | 14.0 | 0.00 | 0.00 | 0.00 | 18 | 1008.9 |
| 20260904181305 | 75 | 249 | 5.0 | 14.0 | 0.00 | 0.00 | 0.00 | 18 | 1008.9 |
| 20260904181205 | 75 | 256 | 8.0 | 15.0 | 0.00 | 0.00 | 0.00 | 17 | 1008.8 |
| 20260904181105 | 75 | 261 | 6.0 | 17.0 | 0.00 | 0.00 | 0.00 | 17 | 1008.9 |
| 20260904181005 | 75 | 266 | 7.0 | 17.0 | 0.00 | 0.00 | 0.00 | 18 | 1009.0 |
| 20260904180905 | 75 | 268 | 9.0 | 17.0 | 0.00 | 0.00 | 0.00 | 17 | 1009.0 |
| 20260904180806 | 75 | 270 | 6.0 | 23.0 | 0.00 | 0.00 | 0.00 | 18 | 1009.0 |
| 20260904180705 | 75 | 269 | 8.0 | 23.0 | 0.00 | 0.00 | 0.00 | 18 | 1009.0 |
| 20260904180605 | 75 | 264 | 11.0 | 23.0 | 0.00 | 0.00 | 0.00 | 18 | 1009.0 |
| 20260904180506 | 75 | 264 | 8.0 | 23.0 | 0.00 | 0.00 | 0.00 | 18 | 1009.0 |
| 20260904180405 | 75 | 265 | 8.0 | 23.0 | 0.00 | 0.00 | 0.00 | 18 | 1009.0 |
| 20260904180305 | 75 | 269 | 11.0 | 23.0 | 0.00 | 0.00 | 0.00 | 18 | 1009.0 |
| 20260904180206 | 75 | 267 | 11.0 | 23.0 | 0.00 | 0.00 | 0.00 | 19 | 1009.1 |
| 20260904180105 | 74 | 263 | 10.0 | 23.0 | 0.00 | 0.00 | 0.00 | 19 | 1009.0 |
| 20260904180005 | 74 | 260 | 7.0 | 23.0 | 0.00 | 0.00 | 0.00 | 19 | 1009.1 |
| 20260904175906 | 74 | 262 | 9.0 | 23.0 | 0.00 | 0.00 | 0.00 | 20 | 1009.0 |
| 20260904175805 | 74 | 258 | 5.0 | 21.0 | 0.00 | 0.00 | 0.00 | 20 | 1008.8 |
| 20260904175605 | 74 | 254 | 8.0 | 12.0 | 0.00 | 0.00 | 0.00 | 20 | 1009.2 |
| 20260904175505 | 74 | 255 | 6.0 | 12.0 | 0.00 | 0.00 | 0.00 | 20 | 1009.1 |
| 20260904175405 | 74 | 226 | 5.0 | 12.0 | 0.00 | 0.00 | 0.00 | 20 | 1009.1 |
| 20260904175306 | 74 | 215 | 4.0 | 12.0 | 0.00 | 0.00 | 0.00 | 20 | 1009.1 |
| 20260904175205 | 74 | 213 | 4.0 | 12.0 | 0.00 | 0.00 | 0.00 | 19 | 1009.2 |
| 20260904175105 | 74 | 211 | 6.0 | 12.0 | 0.00 | 0.00 | 0.00 | 20 | 1009.2 |
| 20260904175005 | 74 | 197 | 6.0 | 12.0 | 0.00 | 0.00 | 0.00 | 20 | 1009.1 |
| 20260904174905 | 74 | 202 | 3.0 | 12.0 | 0.00 | 0.00 | 0.00 | 20 | 1009.2 |
| 20260904174805 | 74 | 222 | 4.0 | 12.0 | 0.00 | 0.00 | 0.00 | 20 | 1009.2 |
| 20260904174705 | 73 | 233 | 4.0 | 12.0 | 0.00 | 0.00 | 0.00 | 20 | 1009.2 |
| 20260904174605 | 74 | 238 | 2.0 | 12.0 | 0.00 | 0.00 | 0.00 | 20 | 1009.2 |
| 20260904174505 | 74 | 240 | 2.0 | 12.0 | 0.00 | 0.00 | 0.00 | 20 | 1009.2 |
| 20260904174405 | 74 | 243 | 8.0 | 12.0 | 0.00 | 0.00 | 0.00 | 20 | 1009.2 |
| 20260904174304 | 74 | 243 | 7.0 | 12.0 | 0.00 | 0.00 | 0.00 | 20 | 1009.3 |
| 20260904174205 | 74 | 248 | 4.0 | 12.0 | 0.00 | 0.00 | 0.00 | 20 | 1009.2 |
| 20260904174105 | 74 | 251 | 8.0 | 12.0 | 0.00 | 0.00 | 0.00 | 21 | 1009.3 |
| 20260904174005 | 73 | 257 | 4.0 | 10.0 | 0.00 | 0.00 | 0.00 | 21 | 1009.2 |
| 20260904173905 | 73 | 258 | 4.0 | 10.0 | 0.00 | 0.00 | 0.00 | 21 | 1009.3 |
| 20260904173805 | 73 | 252 | 2.0 | 10.0 | 0.00 | 0.00 | 0.00 | 21 | 1009.2 |
| 20260904173705 | 73 | 244 | 3.0 | 10.0 | 0.00 | 0.00 | 0.00 | 21 | 1009.2 |
| 20260904173605 | 73 | 245 | 5.0 | 11.0 | 0.00 | 0.00 | 0.00 | 22 | 1009.1 |
| 20260904173505 | 73 | 246 | 5.0 | 11.0 | 0.00 | 0.00 | 0.00 | 22 | 1009.2 |
| 20260904173305 | 72 | 248 | 4.0 | 11.0 | 0.00 | 0.00 | 0.00 | 21 | 1009.2 |
| 20260904173205 | 72 | 246 | 3.0 | 11.0 | 0.00 | 0.00 | 0.00 | 21 | 1009.2 |
| 20260904173106 | 73 | 245 | 4.0 | 11.0 | 0.00 | 0.00 | 0.00 | 21 | 1009.1 |
| 20260904173005 | 73 | 239 | 4.0 | 11.0 | 0.00 | 0.00 | 0.00 | 21 | 1009.2 |
| 20260904172905 | 72 | 234 | 3.0 | 11.0 | 0.00 | 0.00 | 0.00 | 21 | 1009.2 |
| 20260904172805 | 72 | 238 | 5.0 | 12.0 | 0.00 | 0.00 | 0.00 | 21 | 1009.2 |
| 20260904172705 | 72 | 244 | 6.0 | 12.0 | 0.00 | 0.00 | 0.00 | 22 | 1009.2 |
| 20260904172606 | 72 | 252 | 6.0 | 12.0 | 0.00 | 0.00 | 0.00 | 22 | 1009.2 |
| 20260904172505 | 72 | 260 | 7.0 | 12.0 | 0.00 | 0.00 | 0.00 | 22 | 1009.2 |
| 20260904172405 | 72 | 269 | 3.0 | 12.0 | 0.00 | 0.00 | 0.00 | 22 | 1009.2 |
| 20260904172306 | 72 | 267 | 3.0 | 14.0 | 0.00 | 0.00 | 0.00 | 22 | 1009.3 |
| 20260904171706 | 72 | 264 | 7.0 | 15.0 | 0.00 | 0.00 | 0.00 | 22 | 1009.1 |
| 20260904171608 | 72 | 260 | 7.0 | 15.0 | 0.00 | 0.00 | 0.00 | 22 | 1009.2 |
| 20260904171504 | 72 | 250 | 7.0 | 15.0 | 0.00 | 0.00 | 0.00 | 22 | 1009.1 |
| 20260904171405 | 72 | 244 | 9.0 | 15.0 | 0.00 | 0.00 | 0.00 | 22 | 1009.2 |
| 20260904171305 | 72 | 242 | 11.0 | 15.0 | 0.00 | 0.00 | 0.00 | 22 | 1009.1 |
| 20260904171205 | 72 | 238 | 9.0 | 15.0 | 0.00 | 0.00 | 0.00 | 22 | 1009.1 |
| 20260904171105 | 72 | 232 | 9.0 | 15.0 | 0.00 | 0.00 | 0.00 | 22 | 1009.1 |
| 20260904171005 | 72 | 234 | 10.0 | 15.0 | 0.00 | 0.00 | 0.00 | 22 | 1009.2 |
| 20260904170905 | 72 | 237 | 8.0 | 15.0 | 0.00 | 0.00 | 0.00 | 23 | 1009.1 |
| 20260904170805 | 72 | 233 | 8.0 | 15.0 | 0.00 | 0.00 | 0.00 | 23 | 1009.1 |
| 20260904170705 | 72 | 235 | 4.0 | 15.0 | 0.00 | 0.00 | 0.00 | 23 | 1009.1 |
| 20260904170605 | 72 | 235 | 7.0 | 15.0 | 0.00 | 0.00 | 0.00 | 23 | 1009.1 |
| 20260904170505 | 72 | 236 | 11.0 | 15.0 | 0.00 | 0.00 | 0.00 | 23 | 1009.1 |
| 20260904170405 | 72 | 240 | 9.0 | 13.0 | 0.00 | 0.00 | 0.00 | 23 | 1009.0 |
| 20260904170305 | 72 | 244 | 10.0 | 13.0 | 0.00 | 0.00 | 0.00 | 23 | 1009.1 |
| 20260904170205 | 71 | 247 | 6.0 | 11.0 | 0.00 | 0.00 | 0.00 | 24 | 1009.2 |
| 20260904170105 | 71 | 244 | 3.0 | 11.0 | 0.00 | 0.00 | 0.00 | 23 | 1009.0 |
| 20260904170005 | 71 | 243 | 4.0 | 11.0 | 0.00 | 0.00 | 0.00 | 23 | 1009.1 |
| 20260904165905 | 71 | 240 | 3.0 | 11.0 | 0.00 | 0.00 | 0.00 | 23 | 1009.2 |
| 20260904165805 | 71 | 236 | 2.0 | 11.0 | 0.00 | 0.00 | 0.00 | 23 | 1009.1 |
| 20260904165705 | 71 | 235 | 4.0 | 11.0 | 0.00 | 0.00 | 0.00 | 23 | 1009.1 |
| 20260904165605 | 71 | 231 | 8.0 | 11.0 | 0.00 | 0.00 | 0.00 | 23 | 1009.1 |
| 20260904165505 | 71 | 231 | 6.0 | 11.0 | 0.00 | 0.00 | 0.00 | 23 | 1009.1 |
| 20260904165405 | 71 | 227 | 7.0 | 11.0 | 0.00 | 0.00 | 0.00 | 24 | 1009.1 |
| 20260904165306 | 71 | 223 | 5.0 | 11.0 | 0.00 | 0.00 | 0.00 | 24 | 1009.2 |
| 20260904165205 | 71 | 226 | 5.0 | 11.0 | 0.00 | 0.00 | 0.00 | 24 | 1009.0 |
| 20260904165105 | 71 | 229 | 4.0 | 11.0 | 0.00 | 0.00 | 0.00 | 24 | 1009.2 |
| 20260904165006 | 71 | 233 | 6.0 | 11.0 | 0.00 | 0.00 | 0.00 | 24 | 1009.1 |
| 20260904164905 | 71 | 233 | 6.0 | 11.0 | 0.00 | 0.00 | 0.00 | 24 | 1009.1 |
| 20260904164405 | 71 | 234 | 5.0 | 14.0 | 0.00 | 0.00 | 0.00 | 24 | 1009.2 |
| 20260904164305 | 71 | 235 | 3.0 | 14.0 | 0.00 | 0.00 | 0.00 | 24 | 1009.2 |
| 20260904164205 | 71 | 231 | 4.0 | 14.0 | 0.00 | 0.00 | 0.00 | 24 | 1009.2 |
| 20260904164105 | 71 | 227 | 6.0 | 14.0 | 0.00 | 0.00 | 0.00 | 24 | 1009.0 |
| 20260904164005 | 71 | 233 | 7.0 | 14.0 | 0.00 | 0.00 | 0.00 | 24 | 1009.0 |
| 20260904163904 | 71 | 239 | 6.0 | 14.0 | 0.00 | 0.00 | 0.00 | 24 | 1009.0 |
| 20260904163805 | 71 | 249 | 8.0 | 14.0 | 0.00 | 0.00 | 0.00 | 24 | 1009.1 |
| 20260904163705 | 71 | 251 | 8.0 | 14.0 | 0.00 | 0.00 | 0.00 | 24 | 1009.0 |
| 20260904163606 | 71 | 262 | 6.0 | 14.0 | 0.00 | 0.00 | 0.00 | 25 | 1009.0 |
| 20260904163505 | 71 | 262 | 6.0 | 14.0 | 0.00 | 0.00 | 0.00 | 25 | 1009.0 |
| 20260904163405 | 71 | 261 | 3.0 | 14.0 | 0.00 | 0.00 | 0.00 | 24 | 1009.0 |
| 20260904163305 | 71 | 0 | 0.0 | 14.0 | 0.00 | 0.00 | 0.00 | 25 | 1009.0 |
| 20260904163205 | 70 | 255 | 4.0 | 14.0 | 0.00 | 0.00 | 0.00 | 24 | 1009.1 |
| 20260904163106 | 71 | 256 | 9.0 | 14.0 | 0.00 | 0.00 | 0.00 | 25 | 1009.1 |
| 20260904163005 | 71 | 252 | 9.0 | 14.0 | 0.00 | 0.00 | 0.00 | 25 | 1009.0 |
| 20260904162905 | 71 | 251 | 9.0 | 13.0 | 0.00 | 0.00 | 0.00 | 25 | 1009.0 |
| 20260904162806 | 70 | 244 | 6.0 | 13.0 | 0.00 | 0.00 | 0.00 | 26 | 1009.0 |
| 20260904162705 | 70 | 251 | 6.0 | 13.0 | 0.00 | 0.00 | 0.00 | 26 | 1009.0 |
| 20260904162605 | 70 | 248 | 6.0 | 13.0 | 0.00 | 0.00 | 0.00 | 25 | 1009.0 |
| 20260904162505 | 70 | 251 | 8.0 | 13.0 | 0.00 | 0.00 | 0.00 | 25 | 1009.0 |
| 20260904162405 | 70 | 257 | 9.0 | 13.0 | 0.00 | 0.00 | 0.00 | 26 | 1009.0 |
| 20260904162306 | 70 | 259 | 4.0 | 13.0 | 0.00 | 0.00 | 0.00 | 26 | 1009.1 |
| 20260904162205 | 70 | 261 | 6.0 | 13.0 | 0.00 | 0.00 | 0.00 | 26 | 1009.0 |
| 20260904162104 | 70 | 263 | 7.0 | 13.0 | 0.00 | 0.00 | 0.00 | 26 | 1009.0 |
| 20260904162005 | 70 | 260 | 2.0 | 13.0 | 0.00 | 0.00 | 0.00 | 27 | 1009.1 |
| 20260904161905 | 70 | 262 | 4.0 | 13.0 | 0.00 | 0.00 | 0.00 | 27 | 1009.1 |
| 20260904161805 | 69 | 261 | 5.0 | 13.0 | 0.00 | 0.00 | 0.00 | 27 | 1009.1 |
| 20260904161705 | 69 | 258 | 8.0 | 13.0 | 0.00 | 0.00 | 0.00 | 27 | 1009.0 |
| 20260904161605 | 69 | 253 | 5.0 | 11.0 | 0.00 | 0.00 | 0.00 | 27 | 1009.0 |
| 20260904161505 | 69 | 247 | 5.0 | 14.0 | 0.00 | 0.00 | 0.00 | 27 | 1009.2 |
| 20260904161405 | 69 | 239 | 4.0 | 14.0 | 0.00 | 0.00 | 0.00 | 27 | 1009.1 |
| 20260904161305 | 69 | 236 | 5.0 | 14.0 | 0.00 | 0.00 | 0.00 | 27 | 1009.2 |
| 20260904161205 | 69 | 232 | 8.0 | 14.0 | 0.00 | 0.00 | 0.00 | 27 | 1009.1 |
| 20260904161105 | 69 | 232 | 5.0 | 14.0 | 0.00 | 0.00 | 0.00 | 27 | 1009.1 |
| 20260904160905 | 69 | 234 | 8.0 | 14.0 | 0.00 | 0.00 | 0.00 | 27 | 1009.1 |
| 20260904160805 | 69 | 232 | 6.0 | 14.0 | 0.00 | 0.00 | 0.00 | 28 | 1009.1 |
| 20260904160706 | 69 | 231 | 1.0 | 14.0 | 0.00 | 0.00 | 0.00 | 28 | 1009.1 |
| 20260904160605 | 69 | 236 | 3.0 | 14.0 | 0.00 | 0.00 | 0.00 | 28 | 1009.1 |
| 20260904160505 | 68 | 237 | 10.0 | 14.0 | 0.00 | 0.00 | 0.00 | 28 | 1009.1 |
| 20260904155905 | 68 | 240 | 7.0 | 15.0 | 0.00 | 0.00 | 0.00 | 29 | 1009.2 |
| 20260904155805 | 68 | 253 | 5.0 | 15.0 | 0.00 | 0.00 | 0.00 | 29 | 1009.1 |
| 20260904155705 | 68 | 248 | 3.0 | 15.0 | 0.00 | 0.00 | 0.00 | 29 | 1009.0 |
| 20260904155606 | 68 | 232 | 5.0 | 15.0 | 0.00 | 0.00 | 0.00 | 30 | 1009.1 |
| 20260904155505 | 67 | 225 | 8.0 | 15.0 | 0.00 | 0.00 | 0.00 | 29 | 1009.1 |
| 20260904155405 | 67 | 227 | 6.0 | 15.0 | 0.00 | 0.00 | 0.00 | 30 | 1009.2 |
| 20260904155307 | 67 | 226 | 6.0 | 15.0 | 0.00 | 0.00 | 0.00 | 30 | 1009.2 |
| 20260904154705 | 67 | 222 | 8.0 | 11.0 | 0.00 | 0.00 | 0.00 | 30 | 1009.2 |
| 20260904154605 | 67 | 223 | 8.0 | 11.0 | 0.00 | 0.00 | 0.00 | 30 | 1009.2 |
| 20260904154504 | 67 | 237 | 8.0 | 13.0 | 0.00 | 0.00 | 0.00 | 30 | 1009.2 |
| 20260904154405 | 67 | 237 | 5.0 | 13.0 | 0.00 | 0.00 | 0.00 | 31 | 1009.2 |
| 20260904154305 | 67 | 232 | 7.0 | 13.0 | 0.00 | 0.00 | 0.00 | 31 | 1009.2 |
| 20260904154206 | 66 | 233 | 6.0 | 13.0 | 0.00 | 0.00 | 0.00 | 31 | 1009.2 |
| 20260904154105 | 66 | 227 | 7.0 | 13.0 | 0.00 | 0.00 | 0.00 | 31 | 1009.2 |
| 20260904154005 | 66 | 222 | 6.0 | 13.0 | 0.00 | 0.00 | 0.00 | 32 | 1009.2 |
| 20260904153904 | 66 | 222 | 5.0 | 13.0 | 0.00 | 0.00 | 0.00 | 32 | 1009.1 |
| 20260904153805 | 66 | 216 | 8.0 | 13.0 | 0.00 | 0.00 | 0.00 | 32 | 1009.1 |
| 20260904153705 | 66 | 218 | 8.0 | 13.0 | 0.00 | 0.00 | 0.00 | 32 | 1009.1 |
| 20260904153605 | 65 | 219 | 9.0 | 13.0 | 0.00 | 0.00 | 0.00 | 33 | 1009.1 |
| 20260904153505 | 65 | 216 | 8.0 | 13.0 | 0.00 | 0.00 | 0.00 | 33 | 1009.1 |
| 20260904153405 | 65 | 215 | 5.0 | 13.0 | 0.00 | 0.00 | 0.00 | 33 | 1009.2 |
| 20260904153305 | 65 | 218 | 5.0 | 15.0 | 0.00 | 0.00 | 0.00 | 33 | 1009.1 |
| 20260904153205 | 65 | 221 | 10.0 | 15.0 | 0.00 | 0.00 | 0.00 | 33 | 1009.3 |
| 20260904153105 | 65 | 223 | 8.0 | 15.0 | 0.00 | 0.00 | 0.00 | 33 | 1009.2 |
| 20260904153005 | 65 | 223 | 8.0 | 15.0 | 0.00 | 0.00 | 0.00 | 33 | 1009.2 |
| 20260904152905 | 65 | 223 | 9.0 | 15.0 | 0.00 | 0.00 | 0.00 | 33 | 1009.2 |
| 20260904152805 | 65 | 226 | 8.0 | 15.0 | 0.00 | 0.00 | 0.00 | 33 | 1009.3 |
| 20260904152705 | 65 | 226 | 8.0 | 15.0 | 0.00 | 0.00 | 0.00 | 33 | 1009.3 |
| 20260904152605 | 65 | 230 | 9.0 | 15.0 | 0.00 | 0.00 | 0.00 | 33 | 1009.3 |
| 20260904152504 | 65 | 230 | 8.0 | 15.0 | 0.00 | 0.00 | 0.00 | 33 | 1009.2 |
| 20260904152405 | 65 | 233 | 9.0 | 15.0 | 0.00 | 0.00 | 0.00 | 34 | 1009.2 |
| 20260904152306 | 65 | 234 | 10.0 | 15.0 | 0.00 | 0.00 | 0.00 | 35 | 1009.3 |
| 20260904152205 | 65 | 238 | 8.0 | 15.0 | 0.00 | 0.00 | 0.00 | 35 | 1009.2 |
| 20260904152104 | 64 | 235 | 7.0 | 15.0 | 0.00 | 0.00 | 0.00 | 35 | 1009.3 |
| 20260904152005 | 64 | 232 | 5.0 | 15.0 | 0.00 | 0.00 | 0.00 | 35 | 1009.3 |
| 20260904151905 | 64 | 230 | 7.0 | 15.0 | 0.00 | 0.00 | 0.00 | 35 | 1009.3 |
| 20260904151805 | 64 | 234 | 7.0 | 15.0 | 0.00 | 0.00 | 0.00 | 34 | 1009.2 |
| 20260904151705 | 64 | 230 | 8.0 | 15.0 | 0.00 | 0.00 | 0.00 | 34 | 1009.3 |
| 20260904151605 | 64 | 227 | 9.0 | 15.0 | 0.00 | 0.00 | 0.00 | 34 | 1009.3 |
| 20260904151404 | 64 | 224 | 11.0 | 15.0 | 0.00 | 0.00 | 0.00 | 34 | 1009.3 |
| 20260904151305 | 64 | 222 | 8.0 | 15.0 | 0.00 | 0.00 | 0.00 | 34 | 1009.2 |
| 20260904151205 | 64 | 221 | 10.0 | 15.0 | 0.00 | 0.00 | 0.00 | 35 | 1009.2 |
| 20260904151105 | 64 | 222 | 8.0 | 15.0 | 0.00 | 0.00 | 0.00 | 35 | 1009.3 |
| 20260904151005 | 64 | 223 | 8.0 | 15.0 | 0.00 | 0.00 | 0.00 | 35 | 1009.3 |
| 20260904150905 | 64 | 227 | 8.0 | 15.0 | 0.00 | 0.00 | 0.00 | 34 | 1009.2 |
| 20260904150805 | 64 | 225 | 9.0 | 15.0 | 0.00 | 0.00 | 0.00 | 34 | 1009.3 |
| 20260904150705 | 64 | 238 | 11.0 | 15.0 | 0.00 | 0.00 | 0.00 | 34 | 1009.3 |
| 20260904150605 | 64 | 247 | 9.0 | 13.0 | 0.00 | 0.00 | 0.00 | 35 | 1009.2 |
| 20260904150504 | 64 | 251 | 8.0 | 12.0 | 0.00 | 0.00 | 0.00 | 35 | 1009.2 |
| 20260904150405 | 64 | 250 | 8.0 | 12.0 | 0.00 | 0.00 | 0.00 | 35 | 1009.2 |
| 20260904145905 | 64 | 237 | 8.0 | 11.0 | 0.00 | 0.00 | 0.00 | 35 | 1009.3 |
| 20260904145805 | 64 | 235 | 8.0 | 11.0 | 0.00 | 0.00 | 0.00 | 35 | 1009.2 |
| 20260904145705 | 64 | 229 | 7.0 | 11.0 | 0.00 | 0.00 | 0.00 | 35 | 1009.2 |
| 20260904145605 | 64 | 229 | 4.0 | 11.0 | 0.00 | 0.00 | 0.00 | 35 | 1009.4 |
| 20260904145504 | 64 | 229 | 4.0 | 11.0 | 0.00 | 0.00 | 0.00 | 35 | 1009.2 |
| 20260904145405 | 64 | 225 | 7.0 | 11.0 | 0.00 | 0.00 | 0.00 | 35 | 1009.3 |
| 20260904144805 | 64 | 215 | 4.0 | 14.0 | 0.00 | 0.00 | 0.00 | 35 | 1009.2 |
| 20260904144705 | 64 | 219 | 1.0 | 14.0 | 0.00 | 0.00 | 0.00 | 35 | 1009.3 |
| 20260904144604 | 64 | 219 | 4.0 | 14.0 | 0.00 | 0.00 | 0.00 | 35 | 1009.2 |
| 20260904144505 | 64 | 218 | 4.0 | 14.0 | 0.00 | 0.00 | 0.00 | 35 | 1009.3 |
| 20260904144405 | 64 | 224 | 4.0 | 14.0 | 0.00 | 0.00 | 0.00 | 35 | 1009.2 |
| 20260904144304 | 64 | 224 | 4.0 | 14.0 | 0.00 | 0.00 | 0.00 | 34 | 1009.2 |
| 20260904144205 | 64 | 226 | 5.0 | 14.0 | 0.00 | 0.00 | 0.00 | 34 | 1009.2 |
| 20260904144106 | 64 | 233 | 4.0 | 14.0 | 0.00 | 0.00 | 0.00 | 34 | 1009.2 |
| 20260904144005 | 64 | 242 | 3.0 | 14.0 | 0.00 | 0.00 | 0.00 | 34 | 1009.2 |
| 20260904143905 | 64 | 240 | 6.0 | 14.0 | 0.00 | 0.00 | 0.00 | 34 | 1009.2 |
| 20260904143805 | 64 | 247 | 5.0 | 11.0 | 0.00 | 0.00 | 0.00 | 34 | 1009.1 |
| 20260904143705 | 64 | 244 | 5.0 | 11.0 | 0.00 | 0.00 | 0.00 | 34 | 1009.2 |
| 20260904143605 | 64 | 239 | 4.0 | 11.0 | 0.00 | 0.00 | 0.00 | 34 | 1009.3 |
| 20260904143504 | 64 | 242 | 4.0 | 11.0 | 0.00 | 0.00 | 0.00 | 34 | 1009.2 |
| 20260904143405 | 64 | 246 | 4.0 | 11.0 | 0.00 | 0.00 | 0.00 | 34 | 1009.2 |
| 20260904143305 | 64 | 255 | 6.0 | 11.0 | 0.00 | 0.00 | 0.00 | 34 | 1009.2 |
| 20260904143205 | 64 | 271 | 4.0 | 11.0 | 0.00 | 0.00 | 0.00 | 34 | 1009.2 |
| 20260904143105 | 64 | 261 | 5.0 | 9.0 | 0.00 | 0.00 | 0.00 | 34 | 1009.3 |
| 20260904143005 | 64 | 260 | 5.0 | 9.0 | 0.00 | 0.00 | 0.00 | 34 | 1009.2 |
| 20260904142905 | 65 | 297 | 4.0 | 8.0 | 0.00 | 0.00 | 0.00 | 34 | 1009.2 |
| 20260904142805 | 64 | 60 | 2.0 | 8.0 | 0.00 | 0.00 | 0.00 | 34 | 1009.3 |
| 20260904142705 | 64 | 32 | 2.0 | 8.0 | 0.00 | 0.00 | 0.00 | 34 | 1009.2 |
| 20260904142606 | 64 | 3 | 2.0 | 8.0 | 0.00 | 0.00 | 0.00 | 35 | 1009.3 |
| 20260904142505 | 64 | 355 | 2.0 | 8.0 | 0.00 | 0.00 | 0.00 | 35 | 1009.1 |
| 20260904142405 | 64 | 354 | 2.0 | 8.0 | 0.00 | 0.00 | 0.00 | 35 | 1009.1 |
| 20260904142306 | 64 | 350 | 4.0 | 8.0 | 0.00 | 0.00 | 0.00 | 35 | 1009.1 |
| 20260904142205 | 64 | 9 | 4.0 | 8.0 | 0.00 | 0.00 | 0.00 | 35 | 1009.1 |
| 20260904142105 | 64 | 62 | 2.0 | 8.0 | 0.00 | 0.00 | 0.00 | 36 | 1009.2 |
| 20260904142005 | 64 | 94 | 2.0 | 8.0 | 0.00 | 0.00 | 0.00 | 36 | 1009.1 |
| 20260904141905 | 64 | 123 | 1.0 | 8.0 | 0.00 | 0.00 | 0.00 | 36 | 1009.1 |
| 20260904141806 | 64 | 129 | 2.0 | 8.0 | 0.00 | 0.00 | 0.00 | 36 | 1009.1 |
| 20260904141705 | 64 | 134 | 1.0 | 8.0 | 0.00 | 0.00 | 0.00 | 36 | 1009.1 |
| 20260904141605 | 63 | 159 | 2.0 | 8.0 | 0.00 | 0.00 | 0.00 | 37 | 1009.1 |
| 20260904141505 | 63 | 172 | 2.0 | 8.0 | 0.00 | 0.00 | 0.00 | 37 | 1009.1 |
| 20260904141405 | 63 | 176 | 2.0 | 8.0 | 0.00 | 0.00 | 0.00 | 36 | 1009.2 |
| 20260904141305 | 63 | 184 | 2.0 | 8.0 | 0.00 | 0.00 | 0.00 | 36 | 1009.2 |
| 20260904141205 | 63 | 170 | 3.0 | 8.0 | 0.00 | 0.00 | 0.00 | 37 | 1009.1 |
| 20260904141105 | 64 | 178 | 2.0 | 8.0 | 0.00 | 0.00 | 0.00 | 37 | 1009.1 |
| 20260904141005 | 64 | 182 | 2.0 | 8.0 | 0.00 | 0.00 | 0.00 | 37 | 1009.1 |
| 20260904140904 | 64 | 190 | 2.0 | 8.0 | 0.00 | 0.00 | 0.00 | 36 | 1009.1 |
| 20260904140805 | 64 | 211 | 2.0 | 8.0 | 0.00 | 0.00 | 0.00 | 36 | 1009.1 |
| 20260904140705 | 64 | 217 | 1.0 | 8.0 | 0.00 | 0.00 | 0.00 | 35 | 1009.2 |
| 20260904140605 | 64 | 229 | 4.0 | 8.0 | 0.00 | 0.00 | 0.00 | 35 | 1009.1 |
| 20260904140505 | 64 | 243 | 3.0 | 8.0 | 0.00 | 0.00 | 0.00 | 35 | 1009.0 |
| 20260904140405 | 63 | 263 | 2.0 | 8.0 | 0.00 | 0.00 | 0.00 | 35 | 1009.1 |
| 20260904140305 | 63 | 262 | 2.0 | 8.0 | 0.00 | 0.00 | 0.00 | 35 | 1009.1 |
| 20260904140205 | 63 | 278 | 2.0 | 8.0 | 0.00 | 0.00 | 0.00 | 35 | 1009.0 |
| 20260904140105 | 63 | 302 | 4.0 | 8.0 | 0.00 | 0.00 | 0.00 | 35 | 1009.0 |
| 20260904140005 | 63 | 313 | 2.0 | 8.0 | 0.00 | 0.00 | 0.00 | 35 | 1009.0 |
| 20260904135905 | 63 | 301 | 3.0 | 8.0 | 0.00 | 0.00 | 0.00 | 35 | 1009.0 |
| 20260904135805 | 63 | 312 | 4.0 | 8.0 | 0.00 | 0.00 | 0.00 | 35 | 1008.9 |
| 20260904135705 | 63 | 315 | 2.0 | 11.0 | 0.00 | 0.00 | 0.00 | 36 | 1009.0 |
| 20260904135605 | 63 | 305 | 1.0 | 11.0 | 0.00 | 0.00 | 0.00 | 36 | 1008.9 |
| 20260904135505 | 63 | 292 | 1.0 | 11.0 | 0.00 | 0.00 | 0.00 | 36 | 1008.9 |
| 20260904135405 | 63 | 285 | 2.0 | 11.0 | 0.00 | 0.00 | 0.00 | 36 | 1008.9 |
| 20260904135306 | 63 | 272 | 2.0 | 11.0 | 0.00 | 0.00 | 0.00 | 36 | 1009.0 |
| 20260904135204 | 63 | 265 | 2.0 | 11.0 | 0.00 | 0.00 | 0.00 | 36 | 1008.9 |
| 20260904135105 | 63 | 260 | 2.0 | 11.0 | 0.00 | 0.00 | 0.00 | 36 | 1009.0 |
| 20260904134505 | 63 | 243 | 4.0 | 11.0 | 0.00 | 0.00 | 0.00 | 36 | 1009.0 |
| 20260904134405 | 63 | 245 | 4.0 | 11.0 | 0.00 | 0.00 | 0.00 | 36 | 1009.0 |
| 20260904134304 | 63 | 246 | 6.0 | 11.0 | 0.00 | 0.00 | 0.00 | 36 | 1009.0 |
| 20260904134205 | 63 | 242 | 7.0 | 11.0 | 0.00 | 0.00 | 0.00 | 36 | 1008.9 |
| 20260904134105 | 63 | 237 | 4.0 | 10.0 | 0.00 | 0.00 | 0.00 | 37 | 1008.9 |
| 20260904134005 | 63 | 221 | 4.0 | 9.0 | 0.00 | 0.00 | 0.00 | 37 | 1008.8 |
| 20260904133906 | 63 | 221 | 2.0 | 8.0 | 0.00 | 0.00 | 0.00 | 37 | 1008.8 |
| 20260904133805 | 63 | 226 | 2.0 | 8.0 | 0.00 | 0.00 | 0.00 | 37 | 1008.9 |
| 20260904133705 | 63 | 231 | 2.0 | 8.0 | 0.00 | 0.00 | 0.00 | 37 | 1008.8 |
| 20260904133605 | 63 | 241 | 2.0 | 8.0 | 0.00 | 0.00 | 0.00 | 37 | 1008.7 |
| 20260904133505 | 63 | 244 | 2.0 | 8.0 | 0.00 | 0.00 | 0.00 | 37 | 1008.7 |
| 20260904133005 | 63 | 248 | 4.0 | 7.0 | 0.00 | 0.00 | 0.00 | 37 | 1008.8 |
| 20260904132905 | 63 | 248 | 3.0 | 7.0 | 0.00 | 0.00 | 0.00 | 36 | 1008.7 |
| 20260904132805 | 63 | 251 | 2.0 | 7.0 | 0.00 | 0.00 | 0.00 | 36 | 1008.8 |
| 20260904132705 | 63 | 251 | 1.0 | 7.0 | 0.00 | 0.00 | 0.00 | 36 | 1008.7 |
| 20260904132604 | 63 | 247 | 2.0 | 7.0 | 0.00 | 0.00 | 0.00 | 37 | 1008.8 |
| 20260904132505 | 63 | 246 | 2.0 | 7.0 | 0.00 | 0.00 | 0.00 | 37 | 1008.6 |
| 20260904132405 | 63 | 248 | 2.0 | 7.0 | 0.00 | 0.00 | 0.00 | 36 | 1008.7 |
| 20260904132306 | 63 | 255 | 1.0 | 7.0 | 0.00 | 0.00 | 0.00 | 37 | 1008.7 |
| 20260904132205 | 63 | 257 | 2.0 | 7.0 | 0.00 | 0.00 | 0.00 | 37 | 1008.7 |
| 20260904132105 | 63 | 265 | 3.0 | 7.0 | 0.00 | 0.00 | 0.00 | 37 | 1008.6 |
| 20260904132005 | 63 | 266 | 1.0 | 7.0 | 0.00 | 0.00 | 0.00 | 37 | 1008.8 |
| 20260904131905 | 63 | 265 | 2.0 | 7.0 | 0.00 | 0.00 | 0.00 | 37 | 1008.8 |
| 20260904131805 | 63 | 265 | 3.0 | 7.0 | 0.00 | 0.00 | 0.00 | 37 | 1008.7 |
| 20260904131705 | 63 | 260 | 3.0 | 7.0 | 0.00 | 0.00 | 0.00 | 37 | 1008.8 |
| 20260904131604 | 63 | 272 | 3.0 | 7.0 | 0.00 | 0.00 | 0.00 | 37 | 1008.8 |
| 20260904131505 | 63 | 284 | 3.0 | 7.0 | 0.00 | 0.00 | 0.00 | 37 | 1008.8 |
| 20260904131405 | 63 | 297 | 2.0 | 6.0 | 0.00 | 0.00 | 0.00 | 37 | 1008.7 |
| 20260904131305 | 63 | 294 | 3.0 | 6.0 | 0.00 | 0.00 | 0.00 | 37 | 1008.7 |
| 20260904130705 | 63 | 236 | 2.0 | 8.0 | 0.00 | 0.00 | 0.00 | 37 | 1008.6 |
| 20260904130605 | 63 | 232 | 2.0 | 8.0 | 0.00 | 0.00 | 0.00 | 37 | 1008.6 |
| 20260904130505 | 63 | 221 | 1.0 | 8.0 | 0.00 | 0.00 | 0.00 | 37 | 1008.6 |
| 20260904130404 | 63 | 0 | 0.0 | 8.0 | 0.00 | 0.00 | 0.00 | 37 | 1008.5 |
| 20260904130304 | 63 | 222 | 2.0 | 8.0 | 0.00 | 0.00 | 0.00 | 37 | 1008.5 |
| 20260904130205 | 63 | 225 | 1.0 | 8.0 | 0.00 | 0.00 | 0.00 | 37 | 1008.5 |
| 20260904130105 | 63 | 225 | 2.0 | 8.0 | 0.00 | 0.00 | 0.00 | 37 | 1008.6 |
| 20260904130005 | 63 | 225 | 4.0 | 8.0 | 0.00 | 0.00 | 0.00 | 37 | 1008.5 |
| 20260904125904 | 63 | 222 | 3.0 | 8.0 | 0.00 | 0.00 | 0.00 | 37 | 1008.5 |
| 20260904125805 | 63 | 221 | 4.0 | 8.0 | 0.00 | 0.00 | 0.00 | 37 | 1008.4 |
| 20260904125705 | 62 | 222 | 5.0 | 8.0 | 0.00 | 0.00 | 0.00 | 37 | 1008.4 |
| 20260904125605 | 62 | 219 | 3.0 | 8.0 | 0.00 | 0.00 | 0.00 | 37 | 1008.6 |
| 20260904125504 | 62 | 226 | 4.0 | 8.0 | 0.00 | 0.00 | 0.00 | 37 | 1008.5 |
| 20260904125405 | 62 | 230 | 2.0 | 6.0 | 0.00 | 0.00 | 0.00 | 38 | 1008.5 |
| 20260904125306 | 62 | 232 | 2.0 | 6.0 | 0.00 | 0.00 | 0.00 | 38 | 1008.5 |
| 20260904125205 | 62 | 237 | 2.0 | 6.0 | 0.00 | 0.00 | 0.00 | 38 | 1008.5 |
| 20260904125104 | 62 | 244 | 2.0 | 6.0 | 0.00 | 0.00 | 0.00 | 38 | 1008.5 |
| 20260904125005 | 62 | 250 | 4.0 | 6.0 | 0.00 | 0.00 | 0.00 | 38 | 1008.4 |
| 20260904124905 | 62 | 286 | 3.0 | 6.0 | 0.00 | 0.00 | 0.00 | 38 | 1008.5 |
| 20260904124805 | 62 | 105 | 2.0 | 4.0 | 0.00 | 0.00 | 0.00 | 39 | 1008.4 |
| 20260904124705 | 62 | 111 | 1.0 | 6.0 | 0.00 | 0.00 | 0.00 | 39 | 1008.3 |
| 20260904124604 | 62 | 102 | 1.0 | 6.0 | 0.00 | 0.00 | 0.00 | 39 | 1008.4 |
| 20260904124505 | 62 | 103 | 1.0 | 6.0 | 0.00 | 0.00 | 0.00 | 39 | 1008.4 |
| 20260904124405 | 62 | 104 | 1.0 | 6.0 | 0.00 | 0.00 | 0.00 | 39 | 1008.4 |
| 20260904124305 | 62 | 100 | 1.0 | 6.0 | 0.00 | 0.00 | 0.00 | 39 | 1008.4 |
| 20260904124204 | 62 | 100 | 1.0 | 6.0 | 0.00 | 0.00 | 0.00 | 39 | 1008.5 |
| 20260904124105 | 62 | 102 | 2.0 | 6.0 | 0.00 | 0.00 | 0.00 | 39 | 1008.4 |
| 20260904124005 | 62 | 120 | 2.0 | 6.0 | 0.00 | 0.00 | 0.00 | 39 | 1008.3 |
| 20260904123905 | 62 | 138 | 2.0 | 6.0 | 0.00 | 0.00 | 0.00 | 39 | 1008.5 |
| 20260904123804 | 62 | 142 | 2.0 | 6.0 | 0.00 | 0.00 | 0.00 | 39 | 1008.5 |
| 20260904123705 | 62 | 179 | 2.0 | 6.0 | 0.00 | 0.00 | 0.00 | 39 | 1008.5 |
| 20260904123605 | 62 | 199 | 2.0 | 6.0 | 0.00 | 0.00 | 0.00 | 39 | 1008.5 |
| 20260904123505 | 62 | 223 | 2.0 | 6.0 | 0.00 | 0.00 | 0.00 | 39 | 1008.5 |
| 20260904123404 | 62 | 252 | 2.0 | 6.0 | 0.00 | 0.00 | 0.00 | 39 | 1008.6 |
| 20260904123305 | 62 | 248 | 2.0 | 6.0 | 0.00 | 0.00 | 0.00 | 39 | 1008.5 |
| 20260904123205 | 62 | 238 | 2.0 | 6.0 | 0.00 | 0.00 | 0.00 | 39 | 1008.5 |
| 20260904123105 | 62 | 214 | 2.0 | 6.0 | 0.00 | 0.00 | 0.00 | 39 | 1008.5 |
| 20260904123005 | 62 | 177 | 2.0 | 6.0 | 0.00 | 0.00 | 0.00 | 39 | 1008.4 |
| 20260904122905 | 62 | 149 | 2.0 | 6.0 | 0.00 | 0.00 | 0.00 | 39 | 1008.4 |
| 20260904122805 | 62 | 139 | 2.0 | 6.0 | 0.00 | 0.00 | 0.00 | 39 | 1008.6 |
| 20260904122704 | 62 | 110 | 2.0 | 4.0 | 0.00 | 0.00 | 0.00 | 40 | 1008.5 |
| 20260904122605 | 62 | 105 | 2.0 | 4.0 | 0.00 | 0.00 | 0.00 | 39 | 1008.5 |
| 20260904122505 | 62 | 119 | 1.0 | 4.0 | 0.00 | 0.00 | 0.00 | 39 | 1008.5 |
| 20260904122405 | 62 | 132 | 2.0 | 4.0 | 0.00 | 0.00 | 0.00 | 39 | 1008.4 |
| 20260904122306 | 62 | 132 | 2.0 | 4.0 | 0.00 | 0.00 | 0.00 | 39 | 1008.4 |
| 20260904122205 | 62 | 187 | 1.0 | 6.0 | 0.00 | 0.00 | 0.00 | 39 | 1008.5 |
| 20260904122105 | 62 | 218 | 1.0 | 7.0 | 0.00 | 0.00 | 0.00 | 39 | 1008.4 |
| 20260904122005 | 63 | 227 | 1.0 | 8.0 | 0.00 | 0.00 | 0.00 | 38 | 1008.5 |
| 20260904121905 | 63 | 229 | 2.0 | 8.0 | 0.00 | 0.00 | 0.00 | 38 | 1008.4 |
| 20260904121805 | 63 | 0 | 0.0 | 8.0 | 0.00 | 0.00 | 0.00 | 38 | 1008.5 |
| 20260904121704 | 63 | 233 | 1.0 | 8.0 | 0.00 | 0.00 | 0.00 | 38 | 1008.5 |
| 20260904121605 | 63 | 0 | 0.0 | 8.0 | 0.00 | 0.00 | 0.00 | 38 | 1008.6 |
| 20260904121505 | 63 | 250 | 1.0 | 8.0 | 0.00 | 0.00 | 0.00 | 38 | 1008.5 |
| 20260904121405 | 63 | 0 | 0.0 | 8.0 | 0.00 | 0.00 | 0.00 | 38 | 1008.5 |
| 20260904121305 | 63 | 258 | 1.0 | 8.0 | 0.00 | 0.00 | 0.00 | 38 | 1008.5 |
| 20260904121205 | 63 | 263 | 4.0 | 8.0 | 0.00 | 0.00 | 0.00 | 38 | 1008.6 |
| 20260904121105 | 63 | 268 | 4.0 | 8.0 | 0.00 | 0.00 | 0.00 | 38 | 1008.5 |
| 20260904121005 | 63 | 275 | 4.0 | 8.0 | 0.00 | 0.00 | 0.00 | 38 | 1008.6 |
| 20260904120905 | 63 | 277 | 4.0 | 8.0 | 0.00 | 0.00 | 0.00 | 38 | 1008.5 |
| 20260904120805 | 63 | 281 | 3.0 | 8.0 | 0.00 | 0.00 | 0.00 | 38 | 1008.5 |
| 20260904120705 | 63 | 283 | 5.0 | 8.0 | 0.00 | 0.00 | 0.00 | 38 | 1008.4 |
| 20260904120505 | 63 | 277 | 5.0 | 8.0 | 0.00 | 0.00 | 0.00 | 38 | 1008.5 |
| 20260904120405 | 63 | 272 | 5.0 | 8.0 | 0.00 | 0.00 | 0.00 | 38 | 1008.4 |
| 20260904120304 | 63 | 271 | 5.0 | 8.0 | 0.00 | 0.00 | 0.00 | 38 | 1008.4 |
| 20260904120205 | 63 | 275 | 5.0 | 11.0 | 0.00 | 0.00 | 0.00 | 38 | 1008.6 |
| 20260904120105 | 63 | 277 | 5.0 | 11.0 | 0.00 | 0.00 | 0.00 | 38 | 1008.5 |
| 20260904120005 | 63 | 268 | 4.0 | 11.0 | 0.00 | 0.00 | 0.00 | 38 | 1008.4 |
| 20260904115904 | 63 | 267 | 2.0 | 11.0 | 0.00 | 0.00 | 0.00 | 38 | 1008.4 |
| 20260904115805 | 63 | 257 | 2.0 | 11.0 | 0.00 | 0.00 | 0.00 | 38 | 1008.4 |
| 20260904115705 | 63 | 255 | 1.0 | 11.0 | 0.00 | 0.00 | 0.00 | 38 | 1008.5 |
| 20260904115605 | 63 | 249 | 2.0 | 11.0 | 0.00 | 0.00 | 0.00 | 38 | 1008.4 |
| 20260904115504 | 63 | 0 | 0.0 | 11.0 | 0.00 | 0.00 | 0.00 | 38 | 1008.5 |
| 20260904115405 | 63 | 244 | 2.0 | 11.0 | 0.00 | 0.00 | 0.00 | 38 | 1008.4 |
| 20260904115306 | 63 | 247 | 4.0 | 11.0 | 0.00 | 0.00 | 0.00 | 38 | 1008.4 |
| 20260904115205 | 63 | 231 | 5.0 | 11.0 | 0.00 | 0.00 | 0.00 | 38 | 1008.4 |
| 20260904115105 | 63 | 214 | 2.0 | 8.0 | 0.00 | 0.00 | 0.00 | 38 | 1008.3 |
| 20260904115005 | 63 | 215 | 3.0 | 8.0 | 0.00 | 0.00 | 0.00 | 38 | 1008.5 |
| 20260904114905 | 63 | 232 | 3.0 | 8.0 | 0.00 | 0.00 | 0.00 | 38 | 1008.4 |
| 20260904114805 | 62 | 242 | 2.0 | 7.0 | 0.00 | 0.00 | 0.00 | 38 | 1008.4 |
| 20260904114705 | 62 | 242 | 3.0 | 7.0 | 0.00 | 0.00 | 0.00 | 38 | 1008.4 |
| 20260904114605 | 62 | 247 | 3.0 | 7.0 | 0.00 | 0.00 | 0.00 | 39 | 1008.4 |
| 20260904114505 | 62 | 242 | 3.0 | 7.0 | 0.00 | 0.00 | 0.00 | 39 | 1008.3 |
| 20260904114405 | 62 | 225 | 4.0 | 7.0 | 0.00 | 0.00 | 0.00 | 39 | 1008.4 |
| 20260904114305 | 62 | 174 | 2.0 | 7.0 | 0.00 | 0.00 | 0.00 | 39 | 1008.3 |
| 20260904114204 | 62 | 217 | 2.0 | 5.0 | 0.00 | 0.00 | 0.00 | 39 | 1008.3 |
| 20260904114105 | 62 | 202 | 1.0 | 5.0 | 0.00 | 0.00 | 0.00 | 39 | 1008.4 |
| 20260904114005 | 62 | 148 | 2.0 | 6.0 | 0.00 | 0.00 | 0.00 | 39 | 1008.3 |
| 20260904113905 | 62 | 138 | 2.0 | 6.0 | 0.00 | 0.00 | 0.00 | 39 | 1008.3 |
| 20260904113804 | 62 | 153 | 2.0 | 6.0 | 0.00 | 0.00 | 0.00 | 39 | 1008.3 |
| 20260904113705 | 62 | 155 | 1.0 | 6.0 | 0.00 | 0.00 | 0.00 | 39 | 1008.3 |
| 20260904113605 | 62 | 160 | 1.0 | 6.0 | 0.00 | 0.00 | 0.00 | 39 | 1008.4 |
| 20260904113505 | 62 | 182 | 2.0 | 6.0 | 0.00 | 0.00 | 0.00 | 40 | 1008.4 |
| 20260904113405 | 62 | 160 | 1.0 | 6.0 | 0.00 | 0.00 | 0.00 | 40 | 1008.3 |
| 20260904113305 | 62 | 164 | 2.0 | 6.0 | 0.00 | 0.00 | 0.00 | 40 | 1008.3 |
| 20260904113205 | 62 | 155 | 3.0 | 6.0 | 0.00 | 0.00 | 0.00 | 39 | 1008.3 |
| 20260904113105 | 62 | 160 | 2.0 | 6.0 | 0.00 | 0.00 | 0.00 | 40 | 1008.3 |
| 20260904113005 | 62 | 176 | 3.0 | 6.0 | 0.00 | 0.00 | 0.00 | 40 | 1008.3 |
| 20260904112905 | 62 | 174 | 1.0 | 5.0 | 0.00 | 0.00 | 0.00 | 40 | 1008.3 |
| 20260904112805 | 62 | 168 | 2.0 | 5.0 | 0.00 | 0.00 | 0.00 | 40 | 1008.4 |
| 20260904112705 | 62 | 163 | 2.0 | 5.0 | 0.00 | 0.00 | 0.00 | 40 | 1008.3 |
| 20260904112205 | 63 | 198 | 2.0 | 6.0 | 0.00 | 0.00 | 0.00 | 39 | 1008.3 |
| 20260904112105 | 63 | 211 | 2.0 | 6.0 | 0.00 | 0.00 | 0.00 | 39 | 1008.2 |
| 20260904112005 | 63 | 224 | 1.0 | 6.0 | 0.00 | 0.00 | 0.00 | 38 | 1008.3 |
| 20260904111904 | 63 | 0 | 0.0 | 6.0 | 0.00 | 0.00 | 0.00 | 38 | 1008.3 |
| 20260904111805 | 63 | 0 | 0.0 | 6.0 | 0.00 | 0.00 | 0.00 | 38 | 1008.3 |
| 20260904111705 | 63 | 242 | 1.0 | 9.0 | 0.00 | 0.00 | 0.00 | 38 | 1008.3 |
| 20260904111604 | 63 | 242 | 1.0 | 9.0 | 0.00 | 0.00 | 0.00 | 38 | 1008.3 |
| 20260904111504 | 63 | 242 | 1.0 | 9.0 | 0.00 | 0.00 | 0.00 | 38 | 1008.3 |
| 20260904111405 | 63 | 240 | 2.0 | 9.0 | 0.00 | 0.00 | 0.00 | 38 | 1008.3 |
| 20260904111305 | 63 | 245 | 3.0 | 9.0 | 0.00 | 0.00 | 0.00 | 38 | 1008.3 |
| 20260904111205 | 63 | 269 | 2.0 | 9.0 | 0.00 | 0.00 | 0.00 | 38 | 1008.3 |
| 20260904111104 | 63 | 295 | 2.0 | 9.0 | 0.00 | 0.00 | 0.00 | 38 | 1008.4 |
| 20260904111005 | 63 | 341 | 3.0 | 9.0 | 0.00 | 0.00 | 0.00 | 38 | 1008.3 |
| 20260904110905 | 63 | 15 | 3.0 | 9.0 | 0.00 | 0.00 | 0.00 | 38 | 1008.3 |
| 20260904110805 | 63 | 14 | 5.0 | 9.0 | 0.00 | 0.00 | 0.00 | 38 | 1008.3 |
| 20260904110705 | 63 | 44 | 1.0 | 4.0 | 0.00 | 0.00 | 0.00 | 38 | 1008.4 |
| 20260904110605 | 63 | 58 | 1.0 | 4.0 | 0.00 | 0.00 | 0.00 | 38 | 1008.3 |
| 20260904110505 | 63 | 74 | 1.0 | 4.0 | 0.00 | 0.00 | 0.00 | 38 | 1008.3 |
| 20260904110405 | 63 | 79 | 1.0 | 6.0 | 0.00 | 0.00 | 0.00 | 38 | 1008.3 |
| 20260904110305 | 63 | 67 | 1.0 | 6.0 | 0.00 | 0.00 | 0.00 | 38 | 1008.2 |
| 20260904110205 | 63 | 47 | 1.0 | 6.0 | 0.00 | 0.00 | 0.00 | 38 | 1008.3 |
| 20260904110105 | 63 | 49 | 1.0 | 6.0 | 0.00 | 0.00 | 0.00 | 38 | 1008.3 |
| 20260904110005 | 63 | 0 | 0.0 | 6.0 | 0.00 | 0.00 | 0.00 | 38 | 1008.3 |
| 20260904105905 | 63 | 114 | 1.0 | 6.0 | 0.00 | 0.00 | 0.00 | 38 | 1008.2 |
| 20260904105805 | 63 | 108 | 2.0 | 6.0 | 0.00 | 0.00 | 0.00 | 39 | 1008.3 |
| 20260904105705 | 63 | 100 | 2.0 | 6.0 | 0.00 | 0.00 | 0.00 | 38 | 1008.2 |
| 20260904105604 | 63 | 92 | 2.0 | 6.0 | 0.00 | 0.00 | 0.00 | 38 | 1008.2 |
| 20260904105504 | 63 | 0 | 0.0 | 6.0 | 0.00 | 0.00 | 0.00 | 38 | 1008.2 |
| 20260904105405 | 63 | 95 | 2.0 | 6.0 | 0.00 | 0.00 | 0.00 | 38 | 1008.3 |
| 20260904105306 | 63 | 107 | 2.0 | 6.0 | 0.00 | 0.00 | 0.00 | 39 | 1008.2 |
| 20260904105204 | 63 | 120 | 2.0 | 6.0 | 0.00 | 0.00 | 0.00 | 39 | 1008.2 |
| 20260904105104 | 63 | 114 | 2.0 | 6.0 | 0.00 | 0.00 | 0.00 | 39 | 1008.2 |
| 20260904105005 | 63 | 114 | 1.0 | 6.0 | 0.00 | 0.00 | 0.00 | 39 | 1008.2 |
| 20260904104905 | 63 | 108 | 2.0 | 6.0 | 0.00 | 0.00 | 0.00 | 38 | 1008.2 |
| 20260904104805 | 63 | 119 | 1.0 | 6.0 | 0.00 | 0.00 | 0.00 | 39 | 1008.3 |
| 20260904104704 | 63 | 157 | 2.0 | 6.0 | 0.00 | 0.00 | 0.00 | 39 | 1008.3 |
| 20260904104604 | 63 | 196 | 3.0 | 6.0 | 0.00 | 0.00 | 0.00 | 39 | 1008.1 |
| 20260904104505 | 63 | 190 | 1.0 | 4.0 | 0.00 | 0.00 | 0.00 | 39 | 1008.1 |
| 20260904104405 | 63 | 190 | 2.0 | 4.0 | 0.00 | 0.00 | 0.00 | 39 | 1008.2 |
| 20260904104305 | 63 | 295 | 1.0 | 7.0 | 0.00 | 0.00 | 0.00 | 39 | 1008.2 |
| 20260904104205 | 63 | 263 | 1.0 | 7.0 | 0.00 | 0.00 | 0.00 | 38 | 1008.2 |
| 20260904104105 | 63 | 0 | 0.0 | 7.0 | 0.00 | 0.00 | 0.00 | 38 | 1008.2 |
| 20260904104004 | 63 | 223 | 1.0 | 7.0 | 0.00 | 0.00 | 0.00 | 38 | 1008.2 |
| 20260904103905 | 63 | 221 | 2.0 | 7.0 | 0.00 | 0.00 | 0.00 | 38 | 1008.2 |
| 20260904103805 | 63 | 227 | 1.0 | 7.0 | 0.00 | 0.00 | 0.00 | 38 | 1008.2 |
| 20260904103705 | 63 | 234 | 1.0 | 7.0 | 0.00 | 0.00 | 0.00 | 37 | 1008.2 |
| 20260904103504 | 63 | 255 | 1.0 | 7.0 | 0.00 | 0.00 | 0.00 | 38 | 1008.2 |
| 20260904103405 | 63 | 238 | 2.0 | 7.0 | 0.00 | 0.00 | 0.00 | 37 | 1008.2 |
| 20260904103305 | 63 | 240 | 2.0 | 7.0 | 0.00 | 0.00 | 0.00 | 38 | 1008.2 |
| 20260904103205 | 63 | 240 | 1.0 | 5.0 | 0.00 | 0.00 | 0.00 | 38 | 1008.2 |
| 20260904103104 | 63 | 241 | 1.0 | 7.0 | 0.00 | 0.00 | 0.00 | 38 | 1008.3 |
| 20260904102905 | 63 | 225 | 1.0 | 9.0 | 0.00 | 0.00 | 0.00 | 37 | 1008.1 |
| 20260904102805 | 63 | 223 | 1.0 | 9.0 | 0.00 | 0.00 | 0.00 | 37 | 1008.2 |
| 20260904102704 | 63 | 222 | 1.0 | 9.0 | 0.00 | 0.00 | 0.00 | 37 | 1008.2 |
| 20260904102604 | 63 | 0 | 0.0 | 9.0 | 0.00 | 0.00 | 0.00 | 37 | 1008.1 |
| 20260904102505 | 63 | 213 | 2.0 | 9.0 | 0.00 | 0.00 | 0.00 | 38 | 1008.2 |
| 20260904102306 | 63 | 199 | 2.0 | 9.0 | 0.00 | 0.00 | 0.00 | 38 | 1008.2 |
| 20260904102204 | 63 | 191 | 2.0 | 9.0 | 0.00 | 0.00 | 0.00 | 38 | 1008.1 |
| 20260904102105 | 63 | 182 | 4.0 | 9.0 | 0.00 | 0.00 | 0.00 | 38 | 1008.1 |
| 20260904102005 | 62 | 166 | 6.0 | 9.0 | 0.00 | 0.00 | 0.00 | 38 | 1008.1 |
| 20260904101905 | 62 | 159 | 5.0 | 8.0 | 0.00 | 0.00 | 0.00 | 38 | 1008.1 |
| 20260904101804 | 62 | 135 | 2.0 | 6.0 | 0.00 | 0.00 | 0.00 | 38 | 1008.0 |
| 20260904101705 | 62 | 136 | 2.0 | 6.0 | 0.00 | 0.00 | 0.00 | 39 | 1008.0 |
| 20260904101605 | 62 | 135 | 1.0 | 3.0 | 0.00 | 0.00 | 0.00 | 38 | 1008.1 |
| 20260904101505 | 62 | 139 | 2.0 | 3.0 | 0.00 | 0.00 | 0.00 | 38 | 1008.2 |
| 20260904101404 | 62 | 0 | 0.0 | 3.0 | 0.00 | 0.00 | 0.00 | 38 | 1008.2 |
| 20260904101304 | 62 | 150 | 1.0 | 2.0 | 0.00 | 0.00 | 0.00 | 38 | 1008.0 |
| 20260904101205 | 63 | 156 | 1.0 | 2.0 | 0.00 | 0.00 | 0.00 | 38 | 1008.2 |
| 20260904101105 | 63 | 161 | 1.0 | 2.0 | 0.00 | 0.00 | 0.00 | 38 | 1008.2 |
| 20260904101005 | 63 | 172 | 1.0 | 2.0 | 0.00 | 0.00 | 0.00 | 38 | 1008.2 |
| 20260904100904 | 63 | 0 | 0.0 | 2.0 | 0.00 | 0.00 | 0.00 | 38 | 1008.1 |
| 20260904100805 | 63 | 0 | 0.0 | 7.0 | 0.00 | 0.00 | 0.00 | 38 | 1008.0 |
| 20260904100705 | 63 | 183 | 1.0 | 7.0 | 0.00 | 0.00 | 0.00 | 37 | 1008.2 |
| 20260904100605 | 63 | 179 | 1.0 | 7.0 | 0.00 | 0.00 | 0.00 | 37 | 1008.1 |
| 20260904100504 | 63 | 182 | 1.0 | 7.0 | 0.00 | 0.00 | 0.00 | 37 | 1008.0 |
| 20260904100405 | 63 | 183 | 1.0 | 7.0 | 0.00 | 0.00 | 0.00 | 37 | 1008.2 |
| 20260904100305 | 63 | 191 | 1.0 | 7.0 | 0.00 | 0.00 | 0.00 | 37 | 1008.0 |
| 20260904100205 | 63 | 187 | 1.0 | 7.0 | 0.00 | 0.00 | 0.00 | 37 | 1008.1 |
| 20260904100105 | 63 | 192 | 1.0 | 7.0 | 0.00 | 0.00 | 0.00 | 37 | 1008.1 |
| 20260904100005 | 63 | 193 | 2.0 | 7.0 | 0.00 | 0.00 | 0.00 | 37 | 1008.1 |
| 20260904095905 | 63 | 191 | 3.0 | 7.0 | 0.00 | 0.00 | 0.00 | 37 | 1008.0 |
| 20260904095805 | 63 | 178 | 2.0 | 7.0 | 0.00 | 0.00 | 0.00 | 37 | 1007.9 |
| 20260904095705 | 63 | 0 | 0.0 | 4.0 | 0.00 | 0.00 | 0.00 | 37 | 1008.0 |
| 20260904095605 | 63 | 0 | 0.0 | 4.0 | 0.00 | 0.00 | 0.00 | 38 | 1008.0 |
| 20260904095505 | 63 | 162 | 2.0 | 5.0 | 0.00 | 0.00 | 0.00 | 38 | 1008.1 |
| 20260904095405 | 63 | 153 | 2.0 | 5.0 | 0.00 | 0.00 | 0.00 | 38 | 1008.0 |
| 20260904095306 | 63 | 135 | 1.0 | 5.0 | 0.00 | 0.00 | 0.00 | 37 | 1008.0 |
| 20260904095205 | 63 | 137 | 1.0 | 5.0 | 0.00 | 0.00 | 0.00 | 38 | 1008.1 |
| 20260904095105 | 63 | 127 | 2.0 | 5.0 | 0.00 | 0.00 | 0.00 | 38 | 1008.1 |
| 20260904095005 | 63 | 127 | 1.0 | 5.0 | 0.00 | 0.00 | 0.00 | 38 | 1008.1 |
| 20260904094904 | 63 | 123 | 1.0 | 5.0 | 0.00 | 0.00 | 0.00 | 37 | 1008.0 |
| 20260904094804 | 63 | 0 | 0.0 | 5.0 | 0.00 | 0.00 | 0.00 | 37 | 1008.1 |
| 20260904094705 | 63 | 132 | 2.0 | 5.0 | 0.00 | 0.00 | 0.00 | 37 | 1008.0 |
| 20260904094605 | 63 | 138 | 2.0 | 5.0 | 0.00 | 0.00 | 0.00 | 38 | 1008.1 |
| 20260904094404 | 63 | 141 | 2.0 | 5.0 | 0.00 | 0.00 | 0.00 | 38 | 1008.0 |
| 20260904094305 | 63 | 147 | 2.0 | 5.0 | 0.00 | 0.00 | 0.00 | 37 | 1008.2 |
| 20260904094205 | 63 | 150 | 1.0 | 5.0 | 0.00 | 0.00 | 0.00 | 38 | 1008.0 |
| 20260904094105 | 63 | 164 | 1.0 | 5.0 | 0.00 | 0.00 | 0.00 | 37 | 1008.1 |
| 20260904094004 | 63 | 0 | 0.0 | 5.0 | 0.00 | 0.00 | 0.00 | 37 | 1008.1 |
| 20260904093905 | 63 | 177 | 2.0 | 5.0 | 0.00 | 0.00 | 0.00 | 37 | 1008.1 |
| 20260904093805 | 63 | 167 | 2.0 | 5.0 | 0.00 | 0.00 | 0.00 | 37 | 1008.1 |
| 20260904093705 | 63 | 167 | 2.0 | 5.0 | 0.00 | 0.00 | 0.00 | 37 | 1007.9 |
| 20260904093604 | 63 | 167 | 1.0 | 5.0 | 0.00 | 0.00 | 0.00 | 37 | 1008.0 |
| 20260904093504 | 63 | 0 | 0.0 | 5.0 | 0.00 | 0.00 | 0.00 | 37 | 1008.0 |
| 20260904093405 | 63 | 0 | 0.0 | 5.0 | 0.00 | 0.00 | 0.00 | 37 | 1008.2 |
| 20260904093305 | 63 | 0 | 0.0 | 5.0 | 0.00 | 0.00 | 0.00 | 37 | 1008.1 |
| 20260904093205 | 63 | 188 | 1.0 | 5.0 | 0.00 | 0.00 | 0.00 | 37 | 1008.1 |
| 20260904093104 | 63 | 185 | 2.0 | 5.0 | 0.00 | 0.00 | 0.00 | 38 | 1008.1 |
| 20260904093005 | 63 | 184 | 2.0 | 4.0 | 0.00 | 0.00 | 0.00 | 37 | 1008.2 |
| 20260904092905 | 63 | 204 | 1.0 | 4.0 | 0.00 | 0.00 | 0.00 | 37 | 1008.1 |
| 20260904092804 | 63 | 0 | 0.0 | 4.0 | 0.00 | 0.00 | 0.00 | 37 | 1008.1 |
| 20260904092705 | 63 | 0 | 0.0 | 4.0 | 0.00 | 0.00 | 0.00 | 37 | 1008.1 |
| 20260904092605 | 63 | 222 | 1.0 | 4.0 | 0.00 | 0.00 | 0.00 | 37 | 1008.1 |
| 20260904092505 | 63 | 224 | 2.0 | 6.0 | 0.00 | 0.00 | 0.00 | 37 | 1008.1 |
| 20260904092405 | 63 | 231 | 1.0 | 6.0 | 0.00 | 0.00 | 0.00 | 37 | 1008.2 |
| 20260904092204 | 63 | 240 | 1.0 | 6.0 | 0.00 | 0.00 | 0.00 | 37 | 1008.2 |
| 20260904092105 | 63 | 0 | 0.0 | 6.0 | 0.00 | 0.00 | 0.00 | 37 | 1008.1 |
| 20260904092005 | 63 | 244 | 2.0 | 6.0 | 0.00 | 0.00 | 0.00 | 37 | 1008.1 |
| 20260904091904 | 63 | 242 | 2.0 | 6.0 | 0.00 | 0.00 | 0.00 | 37 | 1008.2 |
| 20260904091805 | 63 | 233 | 1.0 | 6.0 | 0.00 | 0.00 | 0.00 | 37 | 1008.2 |
| 20260904091705 | 63 | 248 | 1.0 | 6.0 | 0.00 | 0.00 | 0.00 | 37 | 1008.1 |
| 20260904091005 | 63 | 229 | 1.0 | 5.0 | 0.00 | 0.00 | 0.00 | 36 | 1008.2 |
| 20260904090904 | 63 | 228 | 1.0 | 5.0 | 0.00 | 0.00 | 0.00 | 36 | 1008.1 |
| 20260904090805 | 63 | 234 | 1.0 | 5.0 | 0.00 | 0.00 | 0.00 | 36 | 1008.1 |
| 20260904090704 | 63 | 228 | 3.0 | 5.0 | 0.00 | 0.00 | 0.00 | 36 | 1008.1 |
| 20260904090605 | 63 | 222 | 3.0 | 5.0 | 0.00 | 0.00 | 0.00 | 36 | 1008.2 |
| 20260904090505 | 63 | 222 | 3.0 | 5.0 | 0.00 | 0.00 | 0.00 | 36 | 1008.2 |
| 20260904090404 | 63 | 219 | 3.0 | 6.0 | 0.00 | 0.00 | 0.00 | 36 | 1008.3 |
| 20260904090304 | 63 | 216 | 3.0 | 7.0 | 0.00 | 0.00 | 0.00 | 36 | 1008.2 |
| 20260904090205 | 63 | 221 | 3.0 | 7.0 | 0.00 | 0.00 | 0.00 | 36 | 1008.1 |
| 20260904090105 | 63 | 221 | 3.0 | 7.0 | 0.00 | 0.00 | 0.00 | 36 | 1008.3 |
| 20260904090005 | 63 | 221 | 3.0 | 7.0 | 0.00 | 0.00 | 0.00 | 36 | 1008.2 |
| 20260904085904 | 63 | 221 | 1.0 | 7.0 | 0.00 | 0.00 | 0.00 | 36 | 1008.2 |
| 20260904085804 | 63 | 224 | 1.0 | 7.0 | 0.00 | 0.00 | 0.00 | 36 | 1008.1 |
| 20260904085705 | 63 | 225 | 1.0 | 7.0 | 0.00 | 0.00 | 0.00 | 36 | 1008.2 |
| 20260904085605 | 63 | 233 | 3.0 | 8.0 | 0.00 | 0.00 | 0.00 | 36 | 1008.2 |
| 20260904085505 | 63 | 235 | 4.0 | 8.0 | 0.00 | 0.00 | 0.00 | 36 | 1008.2 |
| 20260904085405 | 63 | 237 | 4.0 | 8.0 | 0.00 | 0.00 | 0.00 | 36 | 1008.2 |
| 20260904085306 | 63 | 238 | 4.0 | 9.0 | 0.00 | 0.00 | 0.00 | 37 | 1008.3 |
| 20260904085205 | 63 | 233 | 4.0 | 9.0 | 0.00 | 0.00 | 0.00 | 37 | 1008.2 |
| 20260904085104 | 63 | 233 | 4.0 | 9.0 | 0.00 | 0.00 | 0.00 | 37 | 1008.2 |
| 20260904085004 | 63 | 236 | 3.0 | 9.0 | 0.00 | 0.00 | 0.00 | 37 | 1008.2 |
| 20260904084905 | 63 | 236 | 3.0 | 9.0 | 0.00 | 0.00 | 0.00 | 37 | 1008.1 |
| 20260904084805 | 62 | 229 | 3.0 | 9.0 | 0.00 | 0.00 | 0.00 | 37 | 1008.1 |
| 20260904084704 | 62 | 231 | 4.0 | 9.0 | 0.00 | 0.00 | 0.00 | 38 | 1008.1 |
| 20260904084605 | 62 | 233 | 5.0 | 9.0 | 0.00 | 0.00 | 0.00 | 38 | 1008.3 |
| 20260904084505 | 62 | 230 | 5.0 | 9.0 | 0.00 | 0.00 | 0.00 | 38 | 1008.2 |
| 20260904084404 | 62 | 237 | 4.0 | 9.0 | 0.00 | 0.00 | 0.00 | 38 | 1008.3 |
| 20260904084205 | 62 | 244 | 4.0 | 7.0 | 0.00 | 0.00 | 0.00 | 38 | 1008.2 |
| 20260904084105 | 62 | 249 | 3.0 | 5.0 | 0.00 | 0.00 | 0.00 | 38 | 1008.2 |
| 20260904084005 | 62 | 247 | 3.0 | 5.0 | 0.00 | 0.00 | 0.00 | 38 | 1008.2 |
| 20260904083905 | 62 | 250 | 3.0 | 4.0 | 0.00 | 0.00 | 0.00 | 38 | 1008.2 |
| 20260904083305 | 62 | 232 | 2.0 | 4.0 | 0.00 | 0.00 | 0.00 | 38 | 1008.3 |
| 20260904082804 | 62 | 235 | 2.0 | 7.0 | 0.00 | 0.00 | 0.00 | 38 | 1008.3 |
| 20260904082704 | 62 | 234 | 2.0 | 7.0 | 0.00 | 0.00 | 0.00 | 38 | 1008.4 |
| 20260904082605 | 62 | 235 | 2.0 | 7.0 | 0.00 | 0.00 | 0.00 | 38 | 1008.3 |
| 20260904082505 | 62 | 246 | 3.0 | 7.0 | 0.00 | 0.00 | 0.00 | 38 | 1008.3 |
| 20260904082405 | 62 | 239 | 2.0 | 8.0 | 0.00 | 0.00 | 0.00 | 38 | 1008.3 |
| 20260904082306 | 62 | 235 | 3.0 | 8.0 | 0.00 | 0.00 | 0.00 | 38 | 1008.3 |
| 20260904082205 | 62 | 237 | 2.0 | 8.0 | 0.00 | 0.00 | 0.00 | 38 | 1008.3 |
| 20260904082105 | 62 | 234 | 3.0 | 8.0 | 0.00 | 0.00 | 0.00 | 38 | 1008.3 |
| 20260904082004 | 62 | 234 | 3.0 | 8.0 | 0.00 | 0.00 | 0.00 | 38 | 1008.3 |
| 20260904081905 | 62 | 235 | 4.0 | 8.0 | 0.00 | 0.00 | 0.00 | 38 | 1008.3 |
| 20260904081805 | 62 | 232 | 4.0 | 8.0 | 0.00 | 0.00 | 0.00 | 38 | 1008.3 |
| 20260904081704 | 62 | 232 | 3.0 | 9.0 | 0.00 | 0.00 | 0.00 | 38 | 1008.3 |
| 20260904081605 | 62 | 231 | 4.0 | 9.0 | 0.00 | 0.00 | 0.00 | 38 | 1008.3 |
| 20260904081505 | 62 | 226 | 5.0 | 9.0 | 0.00 | 0.00 | 0.00 | 38 | 1008.4 |
| 20260904081405 | 62 | 229 | 6.0 | 9.0 | 0.00 | 0.00 | 0.00 | 38 | 1008.5 |
| 20260904081305 | 62 | 229 | 6.0 | 9.0 | 0.00 | 0.00 | 0.00 | 37 | 1008.4 |
| 20260904081204 | 62 | 225 | 5.0 | 9.0 | 0.00 | 0.00 | 0.00 | 37 | 1008.3 |
| 20260904081104 | 62 | 225 | 5.0 | 9.0 | 0.00 | 0.00 | 0.00 | 37 | 1008.4 |
| 20260904081005 | 62 | 226 | 4.0 | 9.0 | 0.00 | 0.00 | 0.00 | 37 | 1008.3 |
| 20260904080905 | 62 | 223 | 4.0 | 9.0 | 0.00 | 0.00 | 0.00 | 37 | 1008.3 |
| 20260904080804 | 62 | 223 | 5.0 | 9.0 | 0.00 | 0.00 | 0.00 | 37 | 1008.3 |
| 20260904080705 | 62 | 221 | 6.0 | 9.0 | 0.00 | 0.00 | 0.00 | 37 | 1008.4 |
| 20260904080605 | 62 | 223 | 6.0 | 9.0 | 0.00 | 0.00 | 0.00 | 37 | 1008.3 |
| 20260904080504 | 62 | 223 | 6.0 | 9.0 | 0.00 | 0.00 | 0.00 | 37 | 1008.4 |
| 20260904080404 | 62 | 223 | 6.0 | 11.0 | 0.00 | 0.00 | 0.00 | 37 | 1008.4 |
| 20260904080305 | 62 | 223 | 6.0 | 11.0 | 0.00 | 0.00 | 0.00 | 37 | 1008.3 |
| 20260904080205 | 62 | 227 | 6.0 | 11.0 | 0.00 | 0.00 | 0.00 | 37 | 1008.3 |
| 20260904080104 | 62 | 227 | 6.0 | 11.0 | 0.00 | 0.00 | 0.00 | 37 | 1008.3 |
| 20260904080005 | 62 | 227 | 6.0 | 11.0 | 0.00 | 0.00 | 0.00 | 37 | 1008.4 |
| 20260904075505 | 62 | 239 | 8.0 | 11.0 | 0.00 | 0.00 | 0.00 | 37 | 1008.4 |
| 20260904075405 | 62 | 238 | 7.0 | 11.0 | 0.00 | 0.00 | 0.00 | 37 | 1008.4 |
| 20260904075306 | 62 | 239 | 7.0 | 11.0 | 0.00 | 0.00 | 0.00 | 37 | 1008.3 |
| 20260904075204 | 62 | 235 | 7.0 | 10.0 | 0.00 | 0.00 | 0.00 | 37 | 1008.4 |
| 20260904075104 | 62 | 237 | 7.0 | 10.0 | 0.00 | 0.00 | 0.00 | 37 | 1008.3 |
| 20260904075005 | 62 | 238 | 7.0 | 10.0 | 0.00 | 0.00 | 0.00 | 37 | 1008.4 |
| 20260904074905 | 62 | 242 | 6.0 | 8.0 | 0.00 | 0.00 | 0.00 | 37 | 1008.4 |
| 20260904074305 | 62 | 238 | 3.0 | 8.0 | 0.00 | 0.00 | 0.00 | 37 | 1008.5 |
| 20260904074205 | 62 | 232 | 2.0 | 8.0 | 0.00 | 0.00 | 0.00 | 37 | 1008.4 |
| 20260904074104 | 62 | 216 | 3.0 | 8.0 | 0.00 | 0.00 | 0.00 | 37 | 1008.4 |
| 20260904074004 | 62 | 219 | 4.0 | 8.0 | 0.00 | 0.00 | 0.00 | 37 | 1008.4 |
| 20260904073905 | 62 | 210 | 3.0 | 8.0 | 0.00 | 0.00 | 0.00 | 37 | 1008.4 |
| 20260904073805 | 62 | 159 | 2.0 | 8.0 | 0.00 | 0.00 | 0.00 | 37 | 1008.4 |
| 20260904073305 | 62 | 127 | 3.0 | 8.0 | 0.00 | 0.00 | 0.00 | 38 | 1008.4 |
| 20260904073204 | 62 | 150 | 2.0 | 8.0 | 0.00 | 0.00 | 0.00 | 38 | 1008.4 |
| 20260904073105 | 62 | 198 | 2.0 | 7.0 | 0.00 | 0.00 | 0.00 | 38 | 1008.4 |
| 20260904073005 | 62 | 223 | 3.0 | 8.0 | 0.00 | 0.00 | 0.00 | 38 | 1008.4 |
| 20260904072905 | 62 | 254 | 4.0 | 10.0 | 0.00 | 0.00 | 0.00 | 37 | 1008.4 |
| 20260904072804 | 63 | 278 | 3.0 | 11.0 | 0.00 | 0.00 | 0.00 | 37 | 1008.4 |
| 20260904072705 | 63 | 284 | 3.0 | 11.0 | 0.00 | 0.00 | 0.00 | 37 | 1008.4 |
| 20260904072605 | 63 | 274 | 2.0 | 13.0 | 0.00 | 0.00 | 0.00 | 36 | 1008.4 |
| 20260904072505 | 63 | 281 | 2.0 | 13.0 | 0.00 | 0.00 | 0.00 | 37 | 1008.4 |
| 20260904072404 | 63 | 303 | 2.0 | 17.0 | 0.00 | 0.00 | 0.00 | 36 | 1008.4 |
| 20260904072306 | 63 | 307 | 2.0 | 17.0 | 0.00 | 0.00 | 0.00 | 36 | 1008.4 |
| 20260904072205 | 63 | 300 | 4.0 | 17.0 | 0.00 | 0.00 | 0.00 | 36 | 1008.5 |
| 20260904072105 | 63 | 298 | 2.0 | 17.0 | 0.00 | 0.00 | 0.00 | 36 | 1008.3 |
| 20260904072004 | 63 | 292 | 6.0 | 17.0 | 0.00 | 0.00 | 0.00 | 35 | 1008.4 |
| 20260904071905 | 63 | 289 | 6.0 | 17.0 | 0.00 | 0.00 | 0.00 | 35 | 1008.4 |
| 20260904071805 | 63 | 276 | 7.0 | 17.0 | 0.00 | 0.00 | 0.00 | 35 | 1008.3 |
| 20260904071705 | 63 | 267 | 6.0 | 17.0 | 0.00 | 0.00 | 0.00 | 35 | 1008.4 |
| 20260904071604 | 63 | 275 | 7.0 | 17.0 | 0.00 | 0.00 | 0.00 | 35 | 1008.3 |
| 20260904071505 | 63 | 272 | 8.0 | 17.0 | 0.00 | 0.00 | 0.00 | 35 | 1008.3 |
| 20260904071405 | 63 | 267 | 8.0 | 17.0 | 0.00 | 0.00 | 0.00 | 35 | 1008.2 |
| 20260904071304 | 63 | 261 | 9.0 | 17.0 | 0.00 | 0.00 | 0.00 | 35 | 1008.3 |
| 20260904071205 | 63 | 267 | 8.0 | 17.0 | 0.00 | 0.00 | 0.00 | 35 | 1008.2 |
| 20260904071105 | 63 | 273 | 7.0 | 17.0 | 0.00 | 0.00 | 0.00 | 35 | 1008.2 |
| 20260904071004 | 63 | 276 | 9.0 | 17.0 | 0.00 | 0.00 | 0.00 | 35 | 1008.3 |
| 20260904070905 | 63 | 281 | 8.0 | 18.0 | 0.00 | 0.00 | 0.00 | 35 | 1008.3 |
| 20260904070805 | 63 | 287 | 8.0 | 18.0 | 0.00 | 0.00 | 0.00 | 35 | 1008.4 |
| 20260904070705 | 63 | 287 | 8.0 | 18.0 | 0.00 | 0.00 | 0.00 | 35 | 1008.3 |
| 20260904070604 | 63 | 284 | 8.0 | 18.0 | 0.00 | 0.00 | 0.00 | 35 | 1008.3 |
| 20260904070505 | 63 | 279 | 8.0 | 18.0 | 0.00 | 0.00 | 0.00 | 35 | 1008.4 |
| 20260904070405 | 63 | 279 | 8.0 | 18.0 | 0.00 | 0.00 | 0.00 | 35 | 1008.3 |
| 20260904070305 | 63 | 277 | 8.0 | 19.0 | 0.00 | 0.00 | 0.00 | 35 | 1008.4 |
| 20260904070204 | 63 | 270 | 8.0 | 19.0 | 0.00 | 0.00 | 0.00 | 35 | 1008.4 |
| 20260904070104 | 63 | 265 | 8.0 | 19.0 | 0.00 | 0.00 | 0.00 | 35 | 1008.4 |
| 20260904070007 | 63 | 258 | 11.0 | 19.0 | 0.00 | 0.00 | 0.00 | 35 | 1008.4 |
| 20260904065505 | 63 | 246 | 8.0 | 20.0 | 0.00 | 0.00 | 0.00 | 34 | 1008.3 |
| 20260904065405 | 63 | 234 | 12.0 | 20.0 | 0.00 | 0.00 | 0.00 | 34 | 1008.3 |
| 20260904065306 | 63 | 229 | 14.0 | 20.0 | 0.00 | 0.00 | 0.00 | 34 | 1008.3 |
| 20260904065205 | 63 | 229 | 11.0 | 20.0 | 0.00 | 0.00 | 0.00 | 35 | 1008.3 |
| 20260904065105 | 63 | 228 | 9.0 | 22.0 | 0.00 | 0.00 | 0.00 | 35 | 1008.3 |